ETH3518 KMIA-EBLG

Flight info

Callsign ETH3518
Flight time 8h 30m
Altitude 37000
Route FOLZZ3 SNAGY/M083F370 DCT ONGOT DCT DRYED M201 CARAC/N0474F370 DCT PORTI/M083F390 DCT 47N050W 49N040W 50N030W 51N020W DCT DINIM DCT ELSOX/N0481F410 DCT KOMAG DCT EVRIN DCT INFEC DCT JETZI DCT AMFUL DCT CAWZE DCT SIRIC P2 DVR/N0435F230 L18 VABIK Q70 KOK
Aircraft B77L/H-SDE1E2E3FGHIJ2J3J4J5M1RWXY/LB1D1

Departure

Time 2026-04-21 05:55
Airport Miami International Airport (KMIA)

Arrival

Time 2026-04-21 14:25
Airport Liège Airport (EBLG)
Time Latitude Longitude Altitude Speed Heading
2026-04-21 05:31 25.80511 -80.29627 22 ft 0 kts
2026-04-21 05:45 25.80501 -80.29627 22 ft 4 kts
2026-04-21 05:45 25.80474 -80.29626 22 ft 4 kts 360°
2026-04-21 05:46 25.80450 -80.29626 22 ft 3 kts 358°
2026-04-21 05:46 25.80427 -80.29622 22 ft 4 kts 323°
2026-04-21 05:46 25.80414 -80.29604 22 ft 4 kts 283°
2026-04-21 05:46 25.80411 -80.29575 22 ft 4 kts 268°
2026-04-21 05:47 25.80412 -80.29560 22 ft 1 kts 267°
2026-04-21 05:47 25.80412 -80.29559 22 ft 0 kts 267°
2026-04-21 05:51 25.80412 -80.29560 22 ft 1 kts 267°
2026-04-21 05:51 25.80410 -80.29593 22 ft 12 kts 267°
2026-04-21 05:51 25.80405 -80.29719 22 ft 17 kts 267°
2026-04-21 05:51 25.80400 -80.29840 22 ft 13 kts 267°
2026-04-21 05:52 25.80396 -80.29922 22 ft 9 kts 267°
2026-04-21 05:52 25.80394 -80.29971 22 ft 4 kts 267°
2026-04-21 05:52 25.80393 -80.29996 22 ft 4 kts 267°
2026-04-21 05:52 25.80390 -80.30055 22 ft 11 kts 267°
2026-04-21 05:53 25.80387 -80.30093 22 ft 0 kts 248°
2026-04-21 05:53 25.80385 -80.30097 22 ft 0 kts 248°
2026-04-21 05:53 25.80381 -80.30106 22 ft 5 kts 235°
2026-04-21 05:53 25.80361 -80.30122 22 ft 0 kts 197°
2026-04-21 05:54 25.80351 -80.30126 22 ft 7 kts 197°
2026-04-21 05:54 25.80302 -80.30129 22 ft 4 kts 126°
2026-04-21 05:54 25.80295 -80.30094 22 ft 5 kts 96°
2026-04-21 05:54 25.80296 -80.30033 22 ft 15 kts 86°
2026-04-21 05:55 25.80307 -80.29776 22 ft 60 kts 87°
2026-04-21 05:55 25.80335 -80.29064 22 ft 125 kts 88°
2026-04-21 05:55 25.80384 -80.27903 162 ft 168 kts 87°
2026-04-21 05:55 25.80420 -80.26546 788 ft 177 kts 90°
2026-04-21 05:56 25.80184 -80.25224 1780 ft 172 kts 107°
2026-04-21 05:56 25.79663 -80.24073 2692 ft 167 kts 112°
2026-04-21 05:56 25.79083 -80.22958 3436 ft 167 kts 113°
2026-04-21 05:56 25.78501 -80.21759 3979 ft 185 kts 112°
2026-04-21 05:57 25.77881 -80.20403 4338 ft 210 kts 112°
2026-04-21 05:57 25.77209 -80.18917 4851 ft 226 kts 112°
2026-04-21 05:57 25.76451 -80.17260 5281 ft 249 kts 114°
2026-04-21 05:57 25.75573 -80.15480 5760 ft 269 kts 115°
2026-04-21 05:58 25.74735 -80.13607 6486 ft 276 kts 107°
2026-04-21 05:58 25.74503 -80.11496 7455 ft 272 kts 82°
2026-04-21 05:58 25.75104 -80.09543 8277 ft 274 kts 60°
2026-04-21 05:58 25.76173 -80.07785 9045 ft 280 kts 53°
2026-04-21 05:59 25.77381 -80.06062 9851 ft 285 kts 50°
2026-04-21 05:59 25.78705 -80.04331 10555 ft 297 kts 48°
2026-04-21 05:59 25.80086 -80.02592 11049 ft 316 kts 47°
2026-04-21 06:00 25.83177 -79.98700 12030 ft 357 kts 47°
2026-04-21 06:00 25.84869 -79.96557 12607 ft 374 kts 47°
2026-04-21 06:00 25.86615 -79.94338 13252 ft 388 kts 47°
2026-04-21 06:00 25.88434 -79.92025 14006 ft 398 kts 46°
2026-04-21 06:01 25.90264 -79.89710 14807 ft 406 kts 46°
2026-04-21 06:01 25.92092 -79.87414 15572 ft 414 kts 46°
2026-04-21 06:01 25.93959 -79.85046 16349 ft 421 kts 46°
2026-04-21 06:01 25.95722 -79.82802 17061 ft 427 kts 45°
2026-04-21 06:02 25.97685 -79.80298 17806 ft 434 kts 45°
2026-04-21 06:02 25.99701 -79.77723 18555 ft 441 kts 45°
2026-04-21 06:02 26.01712 -79.75145 19271 ft 447 kts 45°
2026-04-21 06:02 26.03777 -79.72505 19978 ft 454 kts 45°
2026-04-21 06:03 26.05873 -79.69822 20669 ft 460 kts 45°
2026-04-21 06:03 26.07971 -79.67137 21345 ft 466 kts 45°
2026-04-21 06:03 26.10101 -79.64406 21997 ft 472 kts 46°
2026-04-21 06:03 26.12184 -79.61532 22619 ft 479 kts 49°
2026-04-21 06:04 26.14170 -79.58486 23203 ft 487 kts 52°
2026-04-21 06:04 26.16054 -79.55405 23790 ft 492 kts 53°
2026-04-21 06:04 26.17994 -79.52204 24390 ft 497 kts 52°
2026-04-21 06:04 26.19987 -79.49002 24984 ft 502 kts 52°
2026-04-21 06:05 26.21994 -79.45831 25579 ft 507 kts 51°
2026-04-21 06:05 26.24037 -79.42601 26151 ft 512 kts 51°
2026-04-21 06:05 26.26125 -79.39404 26716 ft 514 kts 47°
2026-04-21 06:05 26.28506 -79.36394 27206 ft 516 kts 40°
2026-04-21 06:06 26.31190 -79.33717 27827 ft 514 kts 33°
2026-04-21 06:06 26.34011 -79.31348 28428 ft 515 kts 30°
2026-04-21 06:06 26.37005 -79.29051 28924 ft 518 kts 27°
2026-04-21 06:06 26.40053 -79.26862 29396 ft 522 kts 26°
2026-04-21 06:07 26.43106 -79.24724 29917 ft 526 kts 25°
2026-04-21 06:07 26.46215 -79.22533 30452 ft 529 kts 25°
2026-04-21 06:07 26.49308 -79.20338 31137 ft 528 kts 25°
2026-04-21 06:07 26.52401 -79.18132 31900 ft 524 kts 25°
2026-04-21 06:08 26.55473 -79.15936 32679 ft 519 kts 25°
2026-04-21 06:08 26.58495 -79.13776 33323 ft 517 kts 24°
2026-04-21 06:08 26.61499 -79.11641 33905 ft 515 kts 24°
2026-04-21 06:08 26.64511 -79.09494 34450 ft 514 kts 24°
2026-04-21 06:09 26.67514 -79.07347 34931 ft 514 kts 24°
2026-04-21 06:09 26.70531 -79.05187 35400 ft 513 kts 24°
2026-04-21 06:09 26.73545 -79.03026 35848 ft 513 kts 24°
2026-04-21 06:09 26.76545 -79.00873 36286 ft 513 kts 24°
2026-04-21 06:10 26.79549 -78.98716 36663 ft 513 kts 24°
2026-04-21 06:10 26.82566 -78.96548 37024 ft 514 kts 24°
2026-04-21 06:10 26.85572 -78.94385 37207 ft 515 kts 24°
2026-04-21 06:11 26.91554 -78.90079 37213 ft 512 kts 24°
2026-04-21 06:11 26.97587 -78.85731 37214 ft 512 kts 24°
2026-04-21 06:12 27.03562 -78.81428 37214 ft 512 kts 23°
2026-04-21 06:12 27.09571 -78.77093 37208 ft 513 kts 24°
2026-04-21 06:13 27.15573 -78.72743 37208 ft 513 kts 24°
2026-04-21 06:13 27.21568 -78.68393 37207 ft 513 kts 24°
2026-04-21 06:14 27.27541 -78.64057 37205 ft 513 kts 24°
2026-04-21 06:14 27.33507 -78.59653 37207 ft 514 kts 24°
2026-04-21 06:15 27.39467 -78.55209 37207 ft 514 kts 24°
2026-04-21 06:15 27.45429 -78.50758 37207 ft 514 kts 24°
2026-04-21 06:16 27.51395 -78.46299 37208 ft 514 kts 24°
2026-04-21 06:16 27.57338 -78.41852 37211 ft 514 kts 24°
2026-04-21 06:17 27.63335 -78.37394 37211 ft 514 kts 24°
2026-04-21 06:17 27.69285 -78.32953 37205 ft 514 kts 24°
2026-04-21 06:18 27.75255 -78.28483 37204 ft 514 kts 24°
2026-04-21 06:18 27.81209 -78.24016 37204 ft 514 kts 24°
2026-04-21 06:19 27.87178 -78.19532 37204 ft 514 kts 24°
2026-04-21 06:19 27.93105 -78.15072 37205 ft 514 kts 24°
2026-04-21 06:20 27.98492 -78.11014 37205 ft 514 kts 24°
2026-04-21 06:20 28.04444 -78.06524 37205 ft 514 kts 24°
2026-04-21 06:21 28.10394 -78.02030 37206 ft 515 kts 24°
2026-04-21 06:21 28.16373 -77.97507 37207 ft 515 kts 24°
2026-04-21 06:22 28.21329 -77.93754 37207 ft 515 kts 24°
2026-04-21 06:23 28.26982 -77.89468 37208 ft 515 kts 24°
2026-04-21 06:23 28.32907 -77.84969 37208 ft 515 kts 24°
2026-04-21 06:24 28.38896 -77.80416 37207 ft 515 kts 24°
2026-04-21 06:24 28.44812 -77.75912 37209 ft 515 kts 24°
2026-04-21 06:25 28.50769 -77.71371 37209 ft 515 kts 24°
2026-04-21 06:25 28.56728 -77.66821 37219 ft 517 kts 24°
2026-04-21 06:26 28.62700 -77.62255 37219 ft 516 kts 24°
2026-04-21 06:26 28.68656 -77.57695 37231 ft 516 kts 24°
2026-04-21 06:27 28.74596 -77.53142 37234 ft 516 kts 24°
2026-04-21 06:27 28.80551 -77.48570 37235 ft 516 kts 24°
2026-04-21 06:28 28.85534 -77.44739 37241 ft 517 kts 24°
2026-04-21 06:28 28.91500 -77.40147 37243 ft 519 kts 24°
2026-04-21 06:29 28.97486 -77.35534 37244 ft 519 kts 24°
2026-04-21 06:29 29.03448 -77.30932 37245 ft 519 kts 24°
2026-04-21 06:30 29.09430 -77.26307 37246 ft 519 kts 24°
2026-04-21 06:30 29.15435 -77.21659 37247 ft 519 kts 24°
2026-04-21 06:31 29.21380 -77.17050 37247 ft 518 kts 23°
2026-04-21 06:31 29.27379 -77.12393 37247 ft 518 kts 23°
2026-04-21 06:32 29.33341 -77.07758 37248 ft 518 kts 23°
2026-04-21 06:32 29.39279 -77.03156 37248 ft 518 kts 23°
2026-04-21 06:33 29.45267 -76.98483 37250 ft 520 kts 24°
2026-04-21 06:33 29.51240 -76.93810 37250 ft 520 kts 23°
2026-04-21 06:34 29.57237 -76.89114 37246 ft 520 kts 23°
2026-04-21 06:34 29.63163 -76.84267 37247 ft 528 kts 28°
2026-04-21 06:35 29.68812 -76.78771 37248 ft 534 kts 31°
2026-04-21 06:35 29.74361 -76.73111 37249 ft 532 kts 31°
2026-04-21 06:36 29.79919 -76.67559 37251 ft 532 kts 30°
2026-04-21 06:36 29.85535 -76.61993 37253 ft 532 kts 30°
2026-04-21 06:37 29.91178 -76.56450 37255 ft 532 kts 30°
2026-04-21 06:37 29.96825 -76.50899 37257 ft 534 kts 30°
2026-04-21 06:38 30.02485 -76.45313 37258 ft 534 kts 30°
2026-04-21 06:38 30.08085 -76.39772 37261 ft 533 kts 30°
2026-04-21 06:39 30.13722 -76.34185 37262 ft 534 kts 30°
2026-04-21 06:39 30.19338 -76.28610 37264 ft 535 kts 30°
2026-04-21 06:40 30.24996 -76.22984 37266 ft 535 kts 30°
2026-04-21 06:40 30.30647 -76.17355 37268 ft 535 kts 30°
2026-04-21 06:41 30.36261 -76.11756 37270 ft 535 kts 30°
2026-04-21 06:41 30.41889 -76.06132 37271 ft 533 kts 30°
2026-04-21 06:42 30.47525 -76.00493 37273 ft 534 kts 30°
2026-04-21 06:42 30.53115 -75.94889 37275 ft 535 kts 30°
2026-04-21 06:43 30.58767 -75.89216 37277 ft 536 kts 30°
2026-04-21 06:43 30.64397 -75.83553 37277 ft 535 kts 30°
2026-04-21 06:44 30.70001 -75.77911 37280 ft 537 kts 30°
2026-04-21 06:44 30.75659 -75.72204 37281 ft 537 kts 31°
2026-04-21 06:45 30.81294 -75.66511 37283 ft 537 kts 31°
2026-04-21 06:45 30.86952 -75.60779 37284 ft 539 kts 31°
2026-04-21 06:46 30.92603 -75.55055 37275 ft 539 kts 31°
2026-04-21 06:46 30.98238 -75.49335 37276 ft 539 kts 31°
2026-04-21 06:47 31.03912 -75.43565 37287 ft 539 kts 31°
2026-04-21 06:47 31.09537 -75.37835 37288 ft 539 kts 31°
2026-04-21 06:48 31.15177 -75.32081 37290 ft 539 kts 31°
2026-04-21 06:48 31.20849 -75.26285 37291 ft 539 kts 31°
2026-04-21 06:49 31.26502 -75.20499 37293 ft 541 kts 31°
2026-04-21 06:49 31.32147 -75.14710 37295 ft 541 kts 31°
2026-04-21 06:50 31.37812 -75.08892 37297 ft 541 kts 31°
2026-04-21 06:50 31.43438 -75.03104 37299 ft 541 kts 31°
2026-04-21 06:51 31.49102 -74.97267 37301 ft 543 kts 32°
2026-04-21 06:51 31.54773 -74.91413 37303 ft 542 kts 32°
2026-04-21 06:52 31.60443 -74.85551 37301 ft 543 kts 32°
2026-04-21 06:52 31.66092 -74.79699 37302 ft 544 kts 32°
2026-04-21 06:53 31.71765 -74.73815 37304 ft 544 kts 32°
2026-04-21 06:53 31.77469 -74.67888 37306 ft 546 kts 32°
2026-04-21 06:54 31.83147 -74.61976 37306 ft 545 kts 32°
2026-04-21 06:54 31.88804 -74.56077 37316 ft 547 kts 32°
2026-04-21 06:55 31.94504 -74.50123 37320 ft 547 kts 32°
2026-04-21 06:55 32.00206 -74.44156 37323 ft 547 kts 32°
2026-04-21 06:56 32.05892 -74.38197 37325 ft 547 kts 33°
2026-04-21 06:56 32.11573 -74.32232 37326 ft 547 kts 33°
2026-04-21 06:57 32.17258 -74.26251 37327 ft 548 kts 33°
2026-04-21 06:57 32.22926 -74.20280 37333 ft 548 kts 33°
2026-04-21 06:58 32.28614 -74.14275 37334 ft 548 kts 33°
2026-04-21 06:58 32.34322 -74.08239 37334 ft 548 kts 33°
2026-04-21 06:59 32.39965 -74.02262 37336 ft 548 kts 33°
2026-04-21 06:59 32.45640 -73.96241 37339 ft 547 kts 33°
2026-04-21 07:00 32.51331 -73.90192 37339 ft 549 kts 33°
2026-04-21 07:00 32.57007 -73.84147 37340 ft 548 kts 33°
2026-04-21 07:01 32.62676 -73.78099 37341 ft 548 kts 34°
2026-04-21 07:01 32.71164 -73.69025 37327 ft 547 kts 34°
2026-04-21 07:02 32.76813 -73.62972 37315 ft 548 kts 34°
2026-04-21 07:02 32.82458 -73.56901 37313 ft 547 kts 34°
2026-04-21 07:03 32.88111 -73.50830 37317 ft 546 kts 34°
2026-04-21 07:03 32.93747 -73.44761 37313 ft 546 kts 34°
2026-04-21 07:04 32.99347 -73.38719 37315 ft 545 kts 35°
2026-04-21 07:04 33.04981 -73.32627 37312 ft 546 kts 35°
2026-04-21 07:05 33.10608 -73.26532 37313 ft 545 kts 35°
2026-04-21 07:05 33.16187 -73.20478 37310 ft 545 kts 35°
2026-04-21 07:06 33.21804 -73.14373 37310 ft 546 kts 36°
2026-04-21 07:06 33.27423 -73.08253 37310 ft 545 kts 36°
2026-04-21 07:07 33.33039 -73.02126 37310 ft 546 kts 36°
2026-04-21 07:07 33.38660 -72.95982 37310 ft 546 kts 36°
2026-04-21 07:08 33.44221 -72.89893 37309 ft 547 kts 36°
2026-04-21 07:08 33.49851 -72.83717 37309 ft 547 kts 36°
2026-04-21 07:09 33.55475 -72.77536 37309 ft 548 kts 36°
2026-04-21 07:09 33.61108 -72.71333 37306 ft 548 kts 37°
2026-04-21 07:10 33.66686 -72.65180 37308 ft 549 kts 37°
2026-04-21 07:10 33.72311 -72.58964 37305 ft 549 kts 37°
2026-04-21 07:11 33.77953 -72.52748 37304 ft 550 kts 37°
2026-04-21 07:11 33.83560 -72.46528 37303 ft 551 kts 37°
2026-04-21 07:12 33.88247 -72.41307 37307 ft 551 kts 38°
2026-04-21 07:12 33.93884 -72.35019 37306 ft 551 kts 38°
2026-04-21 07:13 33.99529 -72.28727 37306 ft 552 kts 38°
2026-04-21 07:13 34.05143 -72.22466 37303 ft 552 kts 38°
2026-04-21 07:14 34.10783 -72.16152 37302 ft 552 kts 38°
2026-04-21 07:14 34.16405 -72.09842 37302 ft 552 kts 38°
2026-04-21 07:15 34.22037 -72.03510 37301 ft 552 kts 38°
2026-04-21 07:15 34.27686 -71.97202 37299 ft 552 kts 38°
2026-04-21 07:16 34.33303 -71.90919 37299 ft 552 kts 38°
2026-04-21 07:16 34.38944 -71.84576 37295 ft 553 kts 38°
2026-04-21 07:17 34.44555 -71.78247 37299 ft 552 kts 38°
2026-04-21 07:17 34.50177 -71.71890 37297 ft 553 kts 38°
2026-04-21 07:18 34.55815 -71.65503 37297 ft 553 kts 39°
2026-04-21 07:18 34.61410 -71.59152 37295 ft 554 kts 39°
2026-04-21 07:19 34.67040 -71.52748 37289 ft 554 kts 39°
2026-04-21 07:19 34.72668 -71.46334 37286 ft 554 kts 39°
2026-04-21 07:20 34.78267 -71.39942 37285 ft 554 kts 39°
2026-04-21 07:20 34.83876 -71.33524 37290 ft 554 kts 39°
2026-04-21 07:21 34.89495 -71.27084 37288 ft 554 kts 40°
2026-04-21 07:21 34.95122 -71.20620 37287 ft 554 kts 40°
2026-04-21 07:22 35.00736 -71.14158 37285 ft 555 kts 40°
2026-04-21 07:22 35.06356 -71.07678 37283 ft 555 kts 40°
2026-04-21 07:23 35.11916 -71.01252 37282 ft 555 kts 40°
2026-04-21 07:23 35.17535 -70.94745 37282 ft 555 kts 40°
2026-04-21 07:24 35.23134 -70.88250 37280 ft 555 kts 40°
2026-04-21 07:24 35.28707 -70.81773 37278 ft 555 kts 40°
2026-04-21 07:25 35.34348 -70.75203 37279 ft 557 kts 40°
2026-04-21 07:25 35.39919 -70.68701 37291 ft 556 kts 41°
2026-04-21 07:26 35.45528 -70.62141 37289 ft 556 kts 41°
2026-04-21 07:26 35.51137 -70.55569 37289 ft 557 kts 41°
2026-04-21 07:27 35.56747 -70.48982 37287 ft 558 kts 41°
2026-04-21 07:27 35.62338 -70.42403 37289 ft 559 kts 41°
2026-04-21 07:28 35.67959 -70.35773 37288 ft 559 kts 41°
2026-04-21 07:28 35.73583 -70.29131 37286 ft 559 kts 42°
2026-04-21 07:29 35.79156 -70.22534 37284 ft 560 kts 42°
2026-04-21 07:29 35.84776 -70.15867 37283 ft 560 kts 42°
2026-04-21 07:30 35.90391 -70.09192 37273 ft 560 kts 42°
2026-04-21 07:30 35.95968 -70.02549 37266 ft 560 kts 42°
2026-04-21 07:31 36.01574 -69.95855 37260 ft 560 kts 42°
2026-04-21 07:31 36.07171 -69.89161 37258 ft 560 kts 42°
2026-04-21 07:32 36.12771 -69.82450 37259 ft 560 kts 42°
2026-04-21 07:32 36.18339 -69.75761 37263 ft 560 kts 43°
2026-04-21 07:33 36.23925 -69.69036 37265 ft 560 kts 43°
2026-04-21 07:33 36.29515 -69.62292 37265 ft 560 kts 43°
2026-04-21 07:34 36.35077 -69.55570 37264 ft 560 kts 43°
2026-04-21 07:34 36.40672 -69.48791 37265 ft 559 kts 43°
2026-04-21 07:35 36.46203 -69.42078 37264 ft 559 kts 43°
2026-04-21 07:35 36.51770 -69.35305 37264 ft 559 kts 43°
2026-04-21 07:36 36.57330 -69.28528 37265 ft 559 kts 43°
2026-04-21 07:36 36.62891 -69.21733 37265 ft 559 kts 44°
2026-04-21 07:37 36.68416 -69.14969 37265 ft 558 kts 44°
2026-04-21 07:37 36.73962 -69.08165 37266 ft 558 kts 44°
2026-04-21 07:38 36.79475 -69.01386 37256 ft 558 kts 44°
2026-04-21 07:38 36.85003 -68.94574 37256 ft 558 kts 44°
2026-04-21 07:39 36.90523 -68.87757 37256 ft 558 kts 44°
2026-04-21 07:39 36.96066 -68.80898 37256 ft 558 kts 44°
2026-04-21 07:40 37.01599 -68.74036 37257 ft 559 kts 44°
2026-04-21 07:40 37.07082 -68.67221 37257 ft 559 kts 45°
2026-04-21 07:41 37.12602 -68.60346 37258 ft 560 kts 45°
2026-04-21 07:41 37.18136 -68.53438 37259 ft 560 kts 45°
2026-04-21 07:42 37.23636 -68.46557 37263 ft 560 kts 45°
2026-04-21 07:42 37.29169 -68.39621 37264 ft 561 kts 45°
2026-04-21 07:43 37.34673 -68.32705 37265 ft 562 kts 45°
2026-04-21 07:43 37.40207 -68.25736 37266 ft 562 kts 45°
2026-04-21 07:44 37.45759 -68.18733 37268 ft 562 kts 45°
2026-04-21 07:44 37.51260 -68.11767 37267 ft 563 kts 45°
2026-04-21 07:45 37.56798 -68.04745 37268 ft 563 kts 45°
2026-04-21 07:45 37.62291 -67.97768 37269 ft 564 kts 46°
2026-04-21 07:46 37.67812 -67.90743 37271 ft 565 kts 46°
2026-04-21 07:46 37.73349 -67.83672 37271 ft 565 kts 46°
2026-04-21 07:47 37.78875 -67.76600 37272 ft 565 kts 46°
2026-04-21 07:47 37.84418 -67.69497 37273 ft 565 kts 46°
2026-04-21 07:48 37.89899 -67.62455 37274 ft 565 kts 46°
2026-04-21 07:48 37.95396 -67.55377 37284 ft 564 kts 46°
2026-04-21 07:49 38.00915 -67.48247 37281 ft 564 kts 46°
2026-04-21 07:49 38.06393 -67.41159 37283 ft 565 kts 46°
2026-04-21 07:50 38.11888 -67.34035 37284 ft 565 kts 46°
2026-04-21 07:50 38.17399 -67.26878 37282 ft 565 kts 47°
2026-04-21 07:51 38.22891 -67.19723 37285 ft 565 kts 47°
2026-04-21 07:51 38.28382 -67.12554 37289 ft 565 kts 47°
2026-04-21 07:52 38.33837 -67.05414 37289 ft 565 kts 47°
2026-04-21 07:52 38.39303 -66.98243 37290 ft 565 kts 47°
2026-04-21 07:53 38.44804 -66.91060 37290 ft 565 kts 47°
2026-04-21 07:53 38.50284 -66.83830 37291 ft 565 kts 48°
2026-04-21 07:54 38.55721 -66.76626 37292 ft 565 kts 48°
2026-04-21 07:54 38.61183 -66.69381 37293 ft 565 kts 48°
2026-04-21 07:55 38.66603 -66.62159 37293 ft 565 kts 48°
2026-04-21 07:55 38.72033 -66.54871 37295 ft 566 kts 48°
2026-04-21 07:56 38.77457 -66.47565 37294 ft 565 kts 49°
2026-04-21 07:56 38.82872 -66.40252 37295 ft 565 kts 49°
2026-04-21 07:57 38.88273 -66.32950 37296 ft 566 kts 48°
2026-04-21 07:57 38.93727 -66.25664 37296 ft 567 kts 48°
2026-04-21 07:58 38.99170 -66.18326 37297 ft 566 kts 49°
2026-04-21 07:58 39.04609 -66.10954 37297 ft 566 kts 49°
2026-04-21 07:59 39.09112 -66.04837 37291 ft 567 kts 49°
2026-04-21 07:59 39.14527 -65.97458 37293 ft 567 kts 49°
2026-04-21 08:00 39.19937 -65.90066 37293 ft 567 kts 49°
2026-04-21 08:00 39.25356 -65.82645 37279 ft 567 kts 49°
2026-04-21 08:01 39.30748 -65.75243 37280 ft 567 kts 49°
2026-04-21 08:02 39.38860 -65.64075 37282 ft 567 kts 49°
2026-04-21 08:02 39.44266 -65.56609 37273 ft 569 kts 50°
2026-04-21 08:03 39.49638 -65.49173 37238 ft 567 kts 50°
2026-04-21 08:03 39.55047 -65.41666 37238 ft 568 kts 50°
2026-04-21 08:04 39.60418 -65.34194 37238 ft 568 kts 50°
2026-04-21 08:04 39.65811 -65.26673 37239 ft 568 kts 50°
2026-04-21 08:05 39.71158 -65.19198 37239 ft 568 kts 50°
2026-04-21 08:05 39.76529 -65.11671 37239 ft 567 kts 50°
2026-04-21 08:06 39.81887 -65.04144 37240 ft 567 kts 50°
2026-04-21 08:06 39.87242 -64.96602 37240 ft 567 kts 50°
2026-04-21 08:07 39.92588 -64.89054 37243 ft 566 kts 50°
2026-04-21 08:07 39.97930 -64.81495 37243 ft 565 kts 50°
2026-04-21 08:08 40.03238 -64.73963 37243 ft 566 kts 51°
2026-04-21 08:08 40.08538 -64.66424 37243 ft 566 kts 51°
2026-04-21 08:09 40.13870 -64.58822 37218 ft 566 kts 51°
2026-04-21 08:09 40.19183 -64.51227 37218 ft 565 kts 51°
2026-04-21 08:10 40.24473 -64.43646 37218 ft 565 kts 51°
2026-04-21 08:10 40.29770 -64.36037 37220 ft 564 kts 51°
2026-04-21 08:11 40.35037 -64.28450 37220 ft 564 kts 51°
2026-04-21 08:11 40.40339 -64.20795 37220 ft 564 kts 51°
2026-04-21 08:12 40.45586 -64.13199 37222 ft 564 kts 51°
2026-04-21 08:12 40.50870 -64.05532 37222 ft 564 kts 51°
2026-04-21 08:13 40.56148 -63.97853 37219 ft 564 kts 51°
2026-04-21 08:13 40.61371 -63.90236 37220 ft 566 kts 51°
2026-04-21 08:14 40.66657 -63.82505 37219 ft 566 kts 51°
2026-04-21 08:14 40.71911 -63.74804 37221 ft 566 kts 52°
2026-04-21 08:15 40.77157 -63.67093 37220 ft 567 kts 52°
2026-04-21 08:15 40.82437 -63.59313 37221 ft 567 kts 52°
2026-04-21 08:16 40.87708 -63.51527 37221 ft 567 kts 52°
2026-04-21 08:16 40.92974 -63.43727 37190 ft 568 kts 52°
2026-04-21 08:17 40.98194 -63.35975 37188 ft 569 kts 52°
2026-04-21 08:17 41.03459 -63.28136 37189 ft 569 kts 52°
2026-04-21 08:18 41.08727 -63.20273 37191 ft 569 kts 52°
2026-04-21 08:18 41.13989 -63.12397 37193 ft 570 kts 52°
2026-04-21 08:19 41.19199 -63.04580 37194 ft 570 kts 52°
2026-04-21 08:19 41.24460 -62.96664 37196 ft 569 kts 52°
2026-04-21 08:20 41.29702 -62.88755 37198 ft 569 kts 53°
2026-04-21 08:20 41.34901 -62.80894 37199 ft 570 kts 53°
2026-04-21 08:21 41.40161 -62.72917 37201 ft 570 kts 53°
2026-04-21 08:21 41.45377 -62.64987 37207 ft 571 kts 53°
2026-04-21 08:22 41.50605 -62.57017 37237 ft 571 kts 53°
2026-04-21 08:22 41.55844 -62.49008 37238 ft 571 kts 53°
2026-04-21 08:23 41.61070 -62.41001 37237 ft 571 kts 53°
2026-04-21 08:23 41.66276 -62.32994 37239 ft 571 kts 53°
2026-04-21 08:24 41.71468 -62.24987 37239 ft 572 kts 53°
2026-04-21 08:24 41.76692 -62.16920 37239 ft 572 kts 54°
2026-04-21 08:25 41.81901 -62.08856 37240 ft 572 kts 54°
2026-04-21 08:25 41.87082 -62.00800 37241 ft 573 kts 54°
2026-04-21 08:26 41.92305 -61.92670 37241 ft 573 kts 54°
2026-04-21 08:26 41.97469 -61.84592 37242 ft 573 kts 54°
2026-04-21 08:27 42.02673 -61.76449 37245 ft 573 kts 54°
2026-04-21 08:27 42.07855 -61.68310 37246 ft 572 kts 54°
2026-04-21 08:28 42.13038 -61.60150 37248 ft 572 kts 54°
2026-04-21 08:28 42.18200 -61.52011 37249 ft 572 kts 54°
2026-04-21 08:29 42.23377 -61.43871 37250 ft 571 kts 54°
2026-04-21 08:29 42.28489 -61.35725 37252 ft 571 kts 54°
2026-04-21 08:30 42.33622 -61.27523 37253 ft 571 kts 54°
2026-04-21 08:30 42.38739 -61.19315 37254 ft 570 kts 56°
2026-04-21 08:31 42.43429 -61.10679 37257 ft 564 kts 61°
2026-04-21 08:31 42.47793 -61.01935 37295 ft 565 kts 61°
2026-04-21 08:32 42.52265 -60.93188 37296 ft 564 kts 60°
2026-04-21 08:32 42.56761 -60.84465 37296 ft 563 kts 60°
2026-04-21 08:33 42.61305 -60.75753 37297 ft 563 kts 60°
2026-04-21 08:33 42.65785 -60.67132 37295 ft 563 kts 60°
2026-04-21 08:34 42.70298 -60.58373 37295 ft 562 kts 60°
2026-04-21 08:34 42.74756 -60.49685 37295 ft 562 kts 60°
2026-04-21 08:35 42.79220 -60.40961 37296 ft 562 kts 60°
2026-04-21 08:35 42.83709 -60.32215 37292 ft 563 kts 60°
2026-04-21 08:36 42.88154 -60.23503 37294 ft 561 kts 61°
2026-04-21 08:36 42.92592 -60.14711 37293 ft 561 kts 61°
2026-04-21 08:37 42.97012 -60.05937 37293 ft 561 kts 61°
2026-04-21 08:37 43.01417 -59.97177 37289 ft 562 kts 60°
2026-04-21 08:38 43.05828 -59.88317 37285 ft 559 kts 60°
2026-04-21 08:38 43.10164 -59.79559 37286 ft 558 kts 61°
2026-04-21 08:39 43.14513 -59.70744 37286 ft 559 kts 61°
2026-04-21 08:39 43.18852 -59.61917 37285 ft 558 kts 61°
2026-04-21 08:40 43.23245 -59.53118 37286 ft 559 kts 60°
2026-04-21 08:40 43.27631 -59.44282 37284 ft 559 kts 60°
2026-04-21 08:41 43.31963 -59.35485 37286 ft 559 kts 60°
2026-04-21 08:41 43.36306 -59.26618 37285 ft 558 kts 61°
2026-04-21 08:42 43.40634 -59.17750 37285 ft 558 kts 61°
2026-04-21 08:42 43.44933 -59.08915 37285 ft 557 kts 61°
2026-04-21 08:43 43.49239 -59.00035 37285 ft 557 kts 61°
2026-04-21 08:43 43.52820 -58.92631 37284 ft 556 kts 61°
2026-04-21 08:44 43.57803 -58.82299 37284 ft 555 kts 61°
2026-04-21 08:44 43.62067 -58.73427 37282 ft 555 kts 60°
2026-04-21 08:45 43.65603 -58.66049 37282 ft 555 kts 61°
2026-04-21 08:45 43.69876 -58.57109 37280 ft 554 kts 61°
2026-04-21 08:46 43.74082 -58.48280 37279 ft 553 kts 60°
2026-04-21 08:46 43.78310 -58.39381 37278 ft 553 kts 60°
2026-04-21 08:47 43.82535 -58.30459 37276 ft 553 kts 61°
2026-04-21 08:47 43.86760 -58.21511 37274 ft 553 kts 61°
2026-04-21 08:48 43.90944 -58.12624 37273 ft 553 kts 61°
2026-04-21 08:48 43.95137 -58.03690 37274 ft 553 kts 61°
2026-04-21 08:49 43.99327 -57.94733 37273 ft 553 kts 61°
2026-04-21 08:49 44.03502 -57.85780 37271 ft 553 kts 61°
2026-04-21 08:50 44.07663 -57.76832 37270 ft 552 kts 61°
2026-04-21 08:50 44.11865 -57.67767 37267 ft 552 kts 61°
2026-04-21 08:51 44.15995 -57.58830 37266 ft 551 kts 61°
2026-04-21 08:51 44.20114 -57.49886 37264 ft 551 kts 61°
2026-04-21 08:52 44.24239 -57.40876 37260 ft 550 kts 61°
2026-04-21 08:52 44.28364 -57.31879 37260 ft 549 kts 61°
2026-04-21 08:53 44.32448 -57.22941 37257 ft 548 kts 61°
2026-04-21 08:53 44.36337 -57.14396 37255 ft 547 kts 61°
2026-04-21 08:54 44.40412 -57.05413 37253 ft 545 kts 61°
2026-04-21 08:54 44.44363 -56.96677 37250 ft 544 kts 61°
2026-04-21 08:55 44.48389 -56.87749 37248 ft 541 kts 61°
2026-04-21 08:55 44.52330 -56.78979 37244 ft 541 kts 61°
2026-04-21 08:56 44.56325 -56.70064 37243 ft 540 kts 61°
2026-04-21 08:56 44.60321 -56.61119 37240 ft 538 kts 61°
2026-04-21 08:57 44.64278 -56.52231 37238 ft 537 kts 61°
2026-04-21 08:57 44.68193 -56.43412 37235 ft 537 kts 61°
2026-04-21 08:58 44.72150 -56.34471 37233 ft 537 kts 61°
2026-04-21 08:58 44.76092 -56.25535 37230 ft 536 kts 61°
2026-04-21 08:59 44.80012 -56.16621 37228 ft 536 kts 61°
2026-04-21 08:59 44.83915 -56.07717 37181 ft 536 kts 62°
2026-04-21 09:00 44.87820 -55.98783 37176 ft 536 kts 61°
2026-04-21 09:00 44.91690 -55.89900 37174 ft 531 kts 61°
2026-04-21 09:01 44.95560 -55.80990 37173 ft 530 kts 61°
2026-04-21 09:01 44.99408 -55.72101 37170 ft 530 kts 61°
2026-04-21 09:02 45.03251 -55.63196 37168 ft 530 kts 61°
2026-04-21 09:02 45.07089 -55.54275 37167 ft 529 kts 61°
2026-04-21 09:03 45.12825 -55.40889 37164 ft 530 kts 61°
2026-04-21 09:03 45.16617 -55.32007 37162 ft 529 kts 61°
2026-04-21 09:04 45.20412 -55.23089 37160 ft 528 kts 61°
2026-04-21 09:04 45.24214 -55.14123 37159 ft 528 kts 61°
2026-04-21 09:05 45.27975 -55.05233 37158 ft 527 kts 61°
2026-04-21 09:05 45.31721 -54.96336 37156 ft 526 kts 61°
2026-04-21 09:06 45.35508 -54.87326 37153 ft 525 kts 61°
2026-04-21 09:06 45.39240 -54.78415 37152 ft 525 kts 61°
2026-04-21 09:07 45.42946 -54.69540 37150 ft 524 kts 61°
2026-04-21 09:07 45.46618 -54.60714 37147 ft 523 kts 61°
2026-04-21 09:08 45.50358 -54.51699 37146 ft 522 kts 60°
2026-04-21 09:08 45.54059 -54.42748 37143 ft 522 kts 60°
2026-04-21 09:09 45.57742 -54.33814 37141 ft 522 kts 60°
2026-04-21 09:09 45.61406 -54.24897 37139 ft 521 kts 60°
2026-04-21 09:10 45.65068 -54.15954 37136 ft 520 kts 61°
2026-04-21 09:10 45.68713 -54.07024 37133 ft 520 kts 60°
2026-04-21 09:11 45.72361 -53.98061 37131 ft 520 kts 60°
2026-04-21 09:11 45.76011 -53.89061 37128 ft 519 kts 60°
2026-04-21 09:12 45.79617 -53.80143 37125 ft 520 kts 61°
2026-04-21 09:12 45.83254 -53.71117 37122 ft 519 kts 61°
2026-04-21 09:13 45.86798 -53.62294 37119 ft 518 kts 61°
2026-04-21 09:13 45.90427 -53.53231 37116 ft 519 kts 61°
2026-04-21 09:14 45.94023 -53.44220 37113 ft 518 kts 61°
2026-04-21 09:14 45.97600 -53.35228 37110 ft 517 kts 61°
2026-04-21 09:15 46.01154 -53.26264 37108 ft 516 kts 61°
2026-04-21 09:15 46.04689 -53.17318 37104 ft 517 kts 61°
2026-04-21 09:16 46.08260 -53.08253 37102 ft 517 kts 61°
2026-04-21 09:16 46.11798 -52.99242 37099 ft 515 kts 61°
2026-04-21 09:17 46.15325 -52.90229 37060 ft 515 kts 61°
2026-04-21 09:17 46.18248 -52.82737 37058 ft 514 kts 61°
2026-04-21 09:18 46.21739 -52.73764 37057 ft 514 kts 60°
2026-04-21 09:18 46.25236 -52.64743 37070 ft 513 kts 60°
2026-04-21 09:19 46.28727 -52.55708 37072 ft 512 kts 60°
2026-04-21 09:19 46.32167 -52.46777 37071 ft 512 kts 60°
2026-04-21 09:20 46.35635 -52.37797 37070 ft 512 kts 60°
2026-04-21 09:20 46.39115 -52.28783 37052 ft 511 kts 61°
2026-04-21 09:21 46.42534 -52.19766 37052 ft 511 kts 61°
2026-04-21 09:21 46.45946 -52.10738 37053 ft 511 kts 61°
2026-04-21 09:22 46.49373 -52.01656 37052 ft 511 kts 62°
2026-04-21 09:22 46.52268 -51.92285 37300 ft 514 kts 69°
2026-04-21 09:23 46.53492 -51.87467 37806 ft 511 kts 70°
2026-04-21 09:23 46.54684 -51.82486 38405 ft 506 kts 71°
2026-04-21 09:23 46.55846 -51.77673 38905 ft 504 kts 70°
2026-04-21 09:23 46.57020 -51.72924 39044 ft 505 kts 70°
2026-04-21 09:24 46.59425 -51.63367 39053 ft 502 kts 70°
2026-04-21 09:24 46.61838 -51.53826 39053 ft 502 kts 69°
2026-04-21 09:25 46.64312 -51.44337 39053 ft 502 kts 69°
2026-04-21 09:25 46.66748 -51.34890 39054 ft 502 kts 69°
2026-04-21 09:26 46.69194 -51.25271 39054 ft 502 kts 69°
2026-04-21 09:26 46.71606 -51.15717 39054 ft 502 kts 69°
2026-04-21 09:27 46.73994 -51.06211 39055 ft 501 kts 69°
2026-04-21 09:27 46.76377 -50.96689 39055 ft 501 kts 69°
2026-04-21 09:28 46.78759 -50.87126 39066 ft 503 kts 71°
2026-04-21 09:28 46.81146 -50.77501 39065 ft 503 kts 71°
2026-04-21 09:29 46.83513 -50.67916 39066 ft 502 kts 71°
2026-04-21 09:29 46.85869 -50.58338 39067 ft 501 kts 71°
2026-04-21 09:30 46.88219 -50.48739 39067 ft 501 kts 71°
2026-04-21 09:30 46.90591 -50.39163 39066 ft 500 kts 71°
2026-04-21 09:31 46.92935 -50.29562 39071 ft 500 kts 71°
2026-04-21 09:31 46.95212 -50.20058 39072 ft 499 kts 72°
2026-04-21 09:32 46.97526 -50.10368 39073 ft 499 kts 72°
2026-04-21 09:32 46.99788 -50.00896 39073 ft 499 kts 72°
2026-04-21 09:33 47.02182 -49.91247 39072 ft 498 kts 70°
2026-04-21 09:33 47.04564 -49.81706 39074 ft 497 kts 70°
2026-04-21 09:34 47.06908 -49.72234 39075 ft 496 kts 70°
2026-04-21 09:34 47.09257 -49.62679 39075 ft 496 kts 70°
2026-04-21 09:35 47.11574 -49.53208 39075 ft 496 kts 70°
2026-04-21 09:35 47.13973 -49.43702 39076 ft 496 kts 70°
2026-04-21 09:36 47.16357 -49.34183 39076 ft 496 kts 70°
2026-04-21 09:36 47.18706 -49.24646 39077 ft 496 kts 70°
2026-04-21 09:37 47.21043 -49.15081 39078 ft 496 kts 70°
2026-04-21 09:37 47.23343 -49.05613 39078 ft 496 kts 70°
2026-04-21 09:38 47.25666 -48.96005 39079 ft 496 kts 70°
2026-04-21 09:38 47.27972 -48.86423 39079 ft 496 kts 70°
2026-04-21 09:39 47.30266 -48.76845 39080 ft 496 kts 70°
2026-04-21 09:39 47.32555 -48.67250 39080 ft 496 kts 70°
2026-04-21 09:40 47.34837 -48.57638 39081 ft 495 kts 70°
2026-04-21 09:40 47.37093 -48.48099 39081 ft 495 kts 70°
2026-04-21 09:41 47.39354 -48.38496 39082 ft 496 kts 70°
2026-04-21 09:41 47.41616 -48.28844 39083 ft 496 kts 70°
2026-04-21 09:42 47.43859 -48.19229 39083 ft 496 kts 70°
2026-04-21 09:42 47.46095 -48.09606 39083 ft 496 kts 70°
2026-04-21 09:43 47.48324 -47.99967 39084 ft 496 kts 70°
2026-04-21 09:43 47.50548 -47.90304 39084 ft 495 kts 70°
2026-04-21 09:44 47.52755 -47.80676 39084 ft 494 kts 70°
2026-04-21 09:44 47.54945 -47.71077 39085 ft 494 kts 70°
2026-04-21 09:45 47.57139 -47.61418 39086 ft 493 kts 70°
2026-04-21 09:45 47.59306 -47.51837 39086 ft 493 kts 70°
2026-04-21 09:46 47.61485 -47.42157 39087 ft 492 kts 70°
2026-04-21 09:46 47.63630 -47.32582 39087 ft 491 kts 70°
2026-04-21 09:47 47.65769 -47.22995 39087 ft 490 kts 69°
2026-04-21 09:47 47.67904 -47.13379 39071 ft 489 kts 69°
2026-04-21 09:48 47.70007 -47.03864 39069 ft 487 kts 69°
2026-04-21 09:48 47.72112 -46.94298 39070 ft 486 kts 69°
2026-04-21 09:49 47.74195 -46.84788 39070 ft 484 kts 69°
2026-04-21 09:49 47.76274 -46.75252 39070 ft 482 kts 69°
2026-04-21 09:50 47.77641 -46.68957 39070 ft 481 kts 69°
2026-04-21 09:50 47.80368 -46.56344 39078 ft 479 kts 68°
2026-04-21 09:51 47.82388 -46.46947 39079 ft 477 kts 68°
2026-04-21 09:51 47.84397 -46.37564 39079 ft 476 kts 68°
2026-04-21 09:52 47.86408 -46.28129 39079 ft 475 kts 68°
2026-04-21 09:52 47.88381 -46.18827 39080 ft 474 kts 68°
2026-04-21 09:53 47.90370 -46.09404 39080 ft 474 kts 68°
2026-04-21 09:53 47.92343 -46.00016 39080 ft 473 kts 68°
2026-04-21 09:54 47.94305 -45.90634 39081 ft 474 kts 68°
2026-04-21 09:54 47.96248 -45.81300 39081 ft 474 kts 68°
2026-04-21 09:55 47.98203 -45.71862 39081 ft 474 kts 68°
2026-04-21 09:55 48.00136 -45.62497 39081 ft 474 kts 69°
2026-04-21 09:56 48.02070 -45.53073 39082 ft 474 kts 69°
2026-04-21 09:56 48.03990 -45.43678 39082 ft 474 kts 69°
2026-04-21 09:57 48.05910 -45.34236 39084 ft 474 kts 69°
2026-04-21 09:57 48.07821 -45.24795 39085 ft 474 kts 69°
2026-04-21 09:58 48.09728 -45.15322 39085 ft 475 kts 69°
2026-04-21 09:58 48.11312 -45.07426 39085 ft 475 kts 69°
2026-04-21 09:59 48.13510 -44.96408 39086 ft 475 kts 69°
2026-04-21 09:59 48.15395 -44.86915 39086 ft 476 kts 69°
2026-04-21 10:00 48.16959 -44.78996 39086 ft 476 kts 69°
2026-04-21 10:00 48.18834 -44.69468 39087 ft 476 kts 69°
2026-04-21 10:01 48.20697 -44.59952 39087 ft 476 kts 69°
2026-04-21 10:01 48.22546 -44.50457 39087 ft 477 kts 69°
2026-04-21 10:02 48.25334 -44.36055 39087 ft 477 kts 69°
2026-04-21 10:03 48.27172 -44.26502 39088 ft 478 kts 69°
2026-04-21 10:03 48.29011 -44.16895 39088 ft 478 kts 69°
2026-04-21 10:04 48.30837 -44.07304 39088 ft 478 kts 69°
2026-04-21 10:04 48.32510 -43.98476 39089 ft 478 kts 69°
2026-04-21 10:05 48.34329 -43.88828 39089 ft 478 kts 70°
2026-04-21 10:05 48.36123 -43.79265 39089 ft 478 kts 70°
2026-04-21 10:06 48.37928 -43.69595 39090 ft 477 kts 70°
2026-04-21 10:06 48.39707 -43.60015 39089 ft 477 kts 70°
2026-04-21 10:07 48.41483 -43.50401 39090 ft 476 kts 70°
2026-04-21 10:07 48.43253 -43.40767 39090 ft 476 kts 70°
2026-04-21 10:08 48.45008 -43.31167 39090 ft 475 kts 70°
2026-04-21 10:08 48.46749 -43.21589 39090 ft 475 kts 70°
2026-04-21 10:09 48.48485 -43.11995 39091 ft 474 kts 70°
2026-04-21 10:09 48.50210 -43.02408 39091 ft 473 kts 71°
2026-04-21 10:10 48.51929 -42.92802 39091 ft 473 kts 71°
2026-04-21 10:10 48.53623 -42.83284 39091 ft 473 kts 71°
2026-04-21 10:11 48.55325 -42.73676 39092 ft 472 kts 71°
2026-04-21 10:11 48.57009 -42.64112 39092 ft 472 kts 71°
2026-04-21 10:12 48.58681 -42.54572 39092 ft 472 kts 71°
2026-04-21 10:12 48.60352 -42.44978 39099 ft 472 kts 71°
2026-04-21 10:13 48.62015 -42.35380 39099 ft 471 kts 71°
2026-04-21 10:13 48.63634 -42.25989 39100 ft 471 kts 71°
2026-04-21 10:14 48.65281 -42.16383 39100 ft 471 kts 71°
2026-04-21 10:14 48.66918 -42.06778 39100 ft 471 kts 71°
2026-04-21 10:15 48.68547 -41.97170 39100 ft 471 kts 71°
2026-04-21 10:15 48.70171 -41.87540 39100 ft 470 kts 71°
2026-04-21 10:16 48.71776 -41.77964 39100 ft 470 kts 71°
2026-04-21 10:16 48.73365 -41.68435 39100 ft 469 kts 71°
2026-04-21 10:17 48.74956 -41.58829 39098 ft 469 kts 71°
2026-04-21 10:17 48.76543 -41.49213 39137 ft 470 kts 71°
2026-04-21 10:18 48.78112 -41.39641 39139 ft 470 kts 71°
2026-04-21 10:18 48.79678 -41.30033 39141 ft 469 kts 71°
2026-04-21 10:19 48.81238 -41.20412 39141 ft 469 kts 71°
2026-04-21 10:19 48.82789 -41.10783 39141 ft 468 kts 71°
2026-04-21 10:20 48.84320 -41.01229 39142 ft 468 kts 71°
2026-04-21 10:20 48.85846 -40.91647 39143 ft 468 kts 71°
2026-04-21 10:21 48.87371 -40.82021 39143 ft 468 kts 71°
2026-04-21 10:21 48.88883 -40.72417 39143 ft 467 kts 71°
2026-04-21 10:22 48.90384 -40.62825 39144 ft 467 kts 71°
2026-04-21 10:22 48.91886 -40.53172 39144 ft 467 kts 71°
2026-04-21 10:23 48.93396 -40.43602 39144 ft 466 kts 71°
2026-04-21 10:23 48.94897 -40.34012 39146 ft 467 kts 71°
2026-04-21 10:24 48.96354 -40.24356 39146 ft 467 kts 72°
2026-04-21 10:24 48.97799 -40.14716 39146 ft 467 kts 72°
2026-04-21 10:25 48.99234 -40.05120 39147 ft 467 kts 71°
2026-04-21 10:25 49.00663 -39.95467 39147 ft 467 kts 72°
2026-04-21 10:26 49.02043 -39.85813 39147 ft 465 kts 72°
2026-04-21 10:26 49.03409 -39.76140 39148 ft 466 kts 72°
2026-04-21 10:27 49.04755 -39.66512 39148 ft 466 kts 72°
2026-04-21 10:27 49.06104 -39.56811 39148 ft 466 kts 72°
2026-04-21 10:28 49.07437 -39.47196 39148 ft 465 kts 71°
2026-04-21 10:28 49.08851 -39.37605 39149 ft 465 kts 71°
2026-04-21 10:29 49.10239 -39.27931 39149 ft 465 kts 71°
2026-04-21 10:29 49.11591 -39.18284 39150 ft 465 kts 71°
2026-04-21 10:30 49.12922 -39.08663 39150 ft 465 kts 72°
2026-04-21 10:30 49.14250 -38.98977 39150 ft 465 kts 72°
2026-04-21 10:31 49.15565 -38.89320 39150 ft 465 kts 72°
2026-04-21 10:31 49.16864 -38.79694 39151 ft 465 kts 72°
2026-04-21 10:32 49.18160 -38.70027 39151 ft 464 kts 72°
2026-04-21 10:32 49.19448 -38.60359 39151 ft 464 kts 72°
2026-04-21 10:33 49.20731 -38.50656 39151 ft 463 kts 72°
2026-04-21 10:33 49.21992 -38.41065 39152 ft 463 kts 72°
2026-04-21 10:34 49.23254 -38.31392 39151 ft 462 kts 72°
2026-04-21 10:34 49.24504 -38.21745 39152 ft 462 kts 72°
2026-04-21 10:35 49.25750 -38.12063 39152 ft 462 kts 72°
2026-04-21 10:35 49.26977 -38.02458 39152 ft 462 kts 72°
2026-04-21 10:36 49.28202 -37.92805 39153 ft 462 kts 72°
2026-04-21 10:36 49.29416 -37.83170 39152 ft 460 kts 72°
2026-04-21 10:37 49.30620 -37.73555 39153 ft 460 kts 72°
2026-04-21 10:37 49.31817 -37.63919 39153 ft 461 kts 72°
2026-04-21 10:38 49.33008 -37.54256 39153 ft 460 kts 73°
2026-04-21 10:38 49.34190 -37.44601 39153 ft 460 kts 73°
2026-04-21 10:39 49.35364 -37.34942 39153 ft 461 kts 73°
2026-04-21 10:39 49.36529 -37.25288 39153 ft 460 kts 73°
2026-04-21 10:40 49.37680 -37.15683 39154 ft 460 kts 73°
2026-04-21 10:40 49.38837 -37.05947 39164 ft 460 kts 73°
2026-04-21 10:41 49.39971 -36.96334 39167 ft 459 kts 74°
2026-04-21 10:41 49.41100 -36.86693 39167 ft 459 kts 74°
2026-04-21 10:42 49.42222 -36.77041 39168 ft 458 kts 74°
2026-04-21 10:42 49.43326 -36.67467 39168 ft 457 kts 75°
2026-04-21 10:43 49.44431 -36.57813 39168 ft 456 kts 75°
2026-04-21 10:43 49.45336 -36.49848 39169 ft 456 kts 75°
2026-04-21 10:44 49.46600 -36.38646 39169 ft 454 kts 75°
2026-04-21 10:44 49.47669 -36.29122 39169 ft 453 kts 75°
2026-04-21 10:45 49.48550 -36.21175 39170 ft 453 kts 75°
2026-04-21 10:45 49.49601 -36.11625 39171 ft 452 kts 75°
2026-04-21 10:46 49.50642 -36.02100 39171 ft 451 kts 76°
2026-04-21 10:46 49.51675 -35.92576 39171 ft 451 kts 76°
2026-04-21 10:47 49.52700 -35.83047 39172 ft 450 kts 76°
2026-04-21 10:47 49.53709 -35.73595 39171 ft 450 kts 76°
2026-04-21 10:48 49.54718 -35.64074 39173 ft 450 kts 76°
2026-04-21 10:48 49.55718 -35.54554 39173 ft 451 kts 76°
2026-04-21 10:49 49.56713 -35.44999 39173 ft 451 kts 76°
2026-04-21 10:49 49.57701 -35.35435 39174 ft 451 kts 76°
2026-04-21 10:50 49.58673 -35.25953 39174 ft 451 kts 76°
2026-04-21 10:50 49.59641 -35.16421 39174 ft 451 kts 76°
2026-04-21 10:51 49.60606 -35.06843 39175 ft 450 kts 76°
2026-04-21 10:51 49.61559 -34.97302 39175 ft 450 kts 76°
2026-04-21 10:52 49.62502 -34.87775 39176 ft 449 kts 76°
2026-04-21 10:52 49.63421 -34.78417 39176 ft 448 kts 76°
2026-04-21 10:53 49.64339 -34.68969 39176 ft 447 kts 76°
2026-04-21 10:53 49.65255 -34.59472 39177 ft 446 kts 76°
2026-04-21 10:54 49.66156 -34.50050 39177 ft 445 kts 76°
2026-04-21 10:54 49.67053 -34.40594 39178 ft 444 kts 76°
2026-04-21 10:55 49.67939 -34.31158 39178 ft 443 kts 76°
2026-04-21 10:55 49.68810 -34.21816 39179 ft 442 kts 77°
2026-04-21 10:56 49.69678 -34.12392 39179 ft 441 kts 77°
2026-04-21 10:56 49.70535 -34.03010 39179 ft 441 kts 77°
2026-04-21 10:57 49.71382 -33.93652 39215 ft 441 kts 77°
2026-04-21 10:57 49.72228 -33.84225 39219 ft 442 kts 77°
2026-04-21 10:58 49.73057 -33.74891 39224 ft 442 kts 77°
2026-04-21 10:58 49.73889 -33.65439 39231 ft 443 kts 77°
2026-04-21 10:59 49.74712 -33.56004 39232 ft 444 kts 77°
2026-04-21 10:59 49.75531 -33.46516 39232 ft 445 kts 77°
2026-04-21 11:00 49.76343 -33.37018 39233 ft 446 kts 77°
2026-04-21 11:00 49.77149 -33.27498 39233 ft 447 kts 78°
2026-04-21 11:01 49.77947 -33.17973 39234 ft 448 kts 78°
2026-04-21 11:01 49.78742 -33.08390 39235 ft 449 kts 78°
2026-04-21 11:02 49.79924 -32.93953 39236 ft 451 kts 79°
2026-04-21 11:02 49.80701 -32.84338 39237 ft 451 kts 79°
2026-04-21 11:03 49.81474 -32.74672 39237 ft 452 kts 79°
2026-04-21 11:03 49.82240 -32.64993 39238 ft 453 kts 79°
2026-04-21 11:04 49.82996 -32.55329 39238 ft 453 kts 80°
2026-04-21 11:04 49.83745 -32.45631 39240 ft 453 kts 80°
2026-04-21 11:05 49.84481 -32.36010 39240 ft 453 kts 80°
2026-04-21 11:05 49.85216 -32.26320 39241 ft 452 kts 80°
2026-04-21 11:06 49.85939 -32.16606 39242 ft 453 kts 81°
2026-04-21 11:06 49.86654 -32.06954 39243 ft 453 kts 81°
2026-04-21 11:07 49.87363 -31.97249 39245 ft 452 kts 81°
2026-04-21 11:07 49.88062 -31.87557 39244 ft 453 kts 81°
2026-04-21 11:08 49.88759 -31.77822 39246 ft 453 kts 81°
2026-04-21 11:08 49.89444 -31.68130 39246 ft 453 kts 81°
2026-04-21 11:09 49.90118 -31.58448 39246 ft 453 kts 81°
2026-04-21 11:09 49.90790 -31.48687 39248 ft 454 kts 81°
2026-04-21 11:10 49.91455 -31.38970 39248 ft 454 kts 81°
2026-04-21 11:10 49.92108 -31.29214 39249 ft 454 kts 82°
2026-04-21 11:11 49.92755 -31.19441 39249 ft 454 kts 82°
2026-04-21 11:11 49.93388 -31.09757 39251 ft 454 kts 82°
2026-04-21 11:12 49.94023 -30.99952 39170 ft 454 kts 82°
2026-04-21 11:12 49.94640 -30.90256 39155 ft 452 kts 82°
2026-04-21 11:13 49.95250 -30.80553 39154 ft 452 kts 83°
2026-04-21 11:13 49.95860 -30.70679 39156 ft 452 kts 83°
2026-04-21 11:14 49.96456 -30.60945 39156 ft 451 kts 83°
2026-04-21 11:14 49.97040 -30.51290 39157 ft 451 kts 83°
2026-04-21 11:15 49.97669 -30.41626 39158 ft 450 kts 83°
2026-04-21 11:15 49.98234 -30.31972 39158 ft 450 kts 84°
2026-04-21 11:16 49.98773 -30.22302 39158 ft 449 kts 84°
2026-04-21 11:16 49.99306 -30.12623 39159 ft 449 kts 84°
2026-04-21 11:17 49.99838 -30.02950 39159 ft 449 kts 84°
2026-04-21 11:17 50.00747 -29.93435 39161 ft 448 kts 78°
2026-04-21 11:18 50.02127 -29.83943 39161 ft 448 kts 76°
2026-04-21 11:18 50.03555 -29.74525 39148 ft 448 kts 77°
2026-04-21 11:19 50.04915 -29.65102 39143 ft 447 kts 77°
2026-04-21 11:19 50.06248 -29.55632 39143 ft 447 kts 77°
2026-04-21 11:20 50.07564 -29.46162 39142 ft 446 kts 77°
2026-04-21 11:20 50.08949 -29.36780 39145 ft 445 kts 77°
2026-04-21 11:21 50.10308 -29.27328 39146 ft 445 kts 77°
2026-04-21 11:21 50.11619 -29.17969 39149 ft 444 kts 77°
2026-04-21 11:22 50.12917 -29.08589 39148 ft 444 kts 77°
2026-04-21 11:22 50.14205 -28.99178 39148 ft 443 kts 77°
2026-04-21 11:23 50.15469 -28.89875 39150 ft 442 kts 78°
2026-04-21 11:23 50.16752 -28.80384 39150 ft 442 kts 78°
2026-04-21 11:24 50.18014 -28.70976 39150 ft 441 kts 78°
2026-04-21 11:24 50.19254 -28.61661 39154 ft 441 kts 78°
2026-04-21 11:25 50.20289 -28.53850 39154 ft 441 kts 78°
2026-04-21 11:25 50.21522 -28.44472 39155 ft 441 kts 78°
2026-04-21 11:26 50.22744 -28.35103 39156 ft 440 kts 78°
2026-04-21 11:26 50.23962 -28.25735 39156 ft 441 kts 78°
2026-04-21 11:27 50.25175 -28.16338 39158 ft 440 kts 78°
2026-04-21 11:27 50.26375 -28.06960 39159 ft 439 kts 78°
2026-04-21 11:28 50.27571 -27.97567 39159 ft 440 kts 78°
2026-04-21 11:28 50.28754 -27.88200 39161 ft 439 kts 78°
2026-04-21 11:29 50.29930 -27.78826 39163 ft 440 kts 78°
2026-04-21 11:29 50.31091 -27.69519 39163 ft 440 kts 78°
2026-04-21 11:30 50.32262 -27.60041 39163 ft 440 kts 78°
2026-04-21 11:30 50.33420 -27.50620 39165 ft 441 kts 79°
2026-04-21 11:31 50.34575 -27.41174 39167 ft 440 kts 79°
2026-04-21 11:31 50.35720 -27.31711 39167 ft 441 kts 79°
2026-04-21 11:32 50.36848 -27.22335 39169 ft 442 kts 79°
2026-04-21 11:32 50.37983 -27.12832 39169 ft 442 kts 79°
2026-04-21 11:33 50.39104 -27.03373 39183 ft 441 kts 79°
2026-04-21 11:33 50.40223 -26.93857 39187 ft 443 kts 79°
2026-04-21 11:34 50.41326 -26.84417 39187 ft 442 kts 79°
2026-04-21 11:34 50.42428 -26.74918 39188 ft 444 kts 79°
2026-04-21 11:35 50.43526 -26.65367 39189 ft 443 kts 79°
2026-04-21 11:35 50.44616 -26.55823 39189 ft 444 kts 79°
2026-04-21 11:36 50.45691 -26.46335 39190 ft 444 kts 79°
2026-04-21 11:36 50.46768 -26.36755 39190 ft 445 kts 79°
2026-04-21 11:37 50.47835 -26.27200 39192 ft 445 kts 80°
2026-04-21 11:37 50.48886 -26.17705 39192 ft 445 kts 80°
2026-04-21 11:38 50.49945 -26.08069 39193 ft 445 kts 80°
2026-04-21 11:38 50.50993 -25.98452 39194 ft 445 kts 80°
2026-04-21 11:39 50.52032 -25.88839 39195 ft 447 kts 80°
2026-04-21 11:39 50.53060 -25.79255 39196 ft 447 kts 80°
2026-04-21 11:40 50.54084 -25.69630 39197 ft 447 kts 80°
2026-04-21 11:40 50.55108 -25.59924 39228 ft 447 kts 80°
2026-04-21 11:41 50.56115 -25.50298 39231 ft 448 kts 81°
2026-04-21 11:41 50.57112 -25.40686 39232 ft 447 kts 81°
2026-04-21 11:42 50.58106 -25.31024 39233 ft 448 kts 81°
2026-04-21 11:42 50.59096 -25.21319 39232 ft 448 kts 81°
2026-04-21 11:43 50.60079 -25.11603 39201 ft 449 kts 81°
2026-04-21 11:43 50.61053 -25.01893 39182 ft 449 kts 81°
2026-04-21 11:44 50.62018 -24.92175 39181 ft 450 kts 81°
2026-04-21 11:44 50.62983 -24.82380 39182 ft 451 kts 81°
2026-04-21 11:45 50.63937 -24.72612 39181 ft 451 kts 82°
2026-04-21 11:45 50.64876 -24.62910 39176 ft 452 kts 82°
2026-04-21 11:46 50.65816 -24.53109 39175 ft 453 kts 82°
2026-04-21 11:46 50.66754 -24.43241 39174 ft 453 kts 82°
2026-04-21 11:47 50.67672 -24.33485 39175 ft 454 kts 82°
2026-04-21 11:47 50.68592 -24.23620 39174 ft 454 kts 82°
2026-04-21 11:48 50.69506 -24.13725 39174 ft 454 kts 82°
2026-04-21 11:48 50.70404 -24.03913 39174 ft 455 kts 82°
2026-04-21 11:49 50.71299 -23.94034 39174 ft 455 kts 82°
2026-04-21 11:49 50.72190 -23.84113 39174 ft 456 kts 83°
2026-04-21 11:50 50.73067 -23.74242 39174 ft 456 kts 83°
2026-04-21 11:50 50.73942 -23.64299 39173 ft 456 kts 83°
2026-04-21 11:51 50.74803 -23.54408 39172 ft 456 kts 83°
2026-04-21 11:51 50.75650 -23.44588 39196 ft 456 kts 83°
2026-04-21 11:52 50.76505 -23.34578 39197 ft 456 kts 83°
2026-04-21 11:52 50.77346 -23.24622 39196 ft 455 kts 83°
2026-04-21 11:53 50.78170 -23.14755 39197 ft 454 kts 83°
2026-04-21 11:53 50.78993 -23.04814 39196 ft 455 kts 83°
2026-04-21 11:54 50.79801 -22.94940 39196 ft 455 kts 83°
2026-04-21 11:54 50.80600 -22.85070 39196 ft 455 kts 83°
2026-04-21 11:55 50.81404 -22.75037 39196 ft 456 kts 84°
2026-04-21 11:55 50.82190 -22.65108 39195 ft 456 kts 84°
2026-04-21 11:56 50.82967 -22.55189 39217 ft 455 kts 84°
2026-04-21 11:56 50.83742 -22.45191 39236 ft 456 kts 84°
2026-04-21 11:57 50.84500 -22.35286 39237 ft 456 kts 84°
2026-04-21 11:57 50.85255 -22.25310 39236 ft 456 kts 84°
2026-04-21 11:58 50.86005 -22.15306 39236 ft 456 kts 84°
2026-04-21 11:58 50.86740 -22.05364 39205 ft 456 kts 84°
2026-04-21 11:59 50.87467 -21.95406 39153 ft 456 kts 84°
2026-04-21 11:59 50.88189 -21.85411 39152 ft 457 kts 85°
2026-04-21 12:00 50.88899 -21.75455 39153 ft 457 kts 85°
2026-04-21 12:00 50.89605 -21.65438 39153 ft 457 kts 85°
2026-04-21 12:01 50.90304 -21.55389 39153 ft 457 kts 85°
2026-04-21 12:01 50.90989 -21.45422 39154 ft 458 kts 85°
2026-04-21 12:02 50.92008 -21.30365 39154 ft 458 kts 85°
2026-04-21 12:03 50.92674 -21.20350 39156 ft 458 kts 85°
2026-04-21 12:03 50.93336 -21.10259 39156 ft 459 kts 85°
2026-04-21 12:04 50.93988 -21.00190 39231 ft 459 kts 85°
2026-04-21 12:04 50.94634 -20.90083 39242 ft 459 kts 85°
2026-04-21 12:05 50.95269 -20.80008 39243 ft 460 kts 85°
2026-04-21 12:05 50.95893 -20.69956 39243 ft 461 kts 85°
2026-04-21 12:06 50.96515 -20.59818 39243 ft 461 kts 86°
2026-04-21 12:06 50.97132 -20.49712 39242 ft 461 kts 85°
2026-04-21 12:07 50.97790 -20.39591 39244 ft 461 kts 86°
2026-04-21 12:07 50.98273 -20.31194 39244 ft 461 kts 86°
2026-04-21 12:08 50.98839 -20.21034 39244 ft 462 kts 86°
2026-04-21 12:08 50.99491 -20.09220 39243 ft 462 kts 86°
2026-04-21 12:09 50.99964 -20.00661 39243 ft 462 kts 86°
2026-04-21 12:09 51.00304 -19.90566 39245 ft 462 kts 90°
2026-04-21 12:10 51.00429 -19.80320 39244 ft 464 kts 90°
2026-04-21 12:10 51.00558 -19.70076 39244 ft 464 kts 90°
2026-04-21 12:11 51.00700 -19.59858 39244 ft 464 kts 90°
2026-04-21 12:11 51.00839 -19.49609 39244 ft 464 kts 90°
2026-04-21 12:12 51.01026 -19.39350 39245 ft 464 kts 89°
2026-04-21 12:12 51.01251 -19.29147 39244 ft 465 kts 89°
2026-04-21 12:13 51.01429 -19.18846 39245 ft 465 kts 90°
2026-04-21 12:13 51.01583 -19.08521 39245 ft 465 kts 90°
2026-04-21 12:14 51.01720 -18.98325 39245 ft 465 kts 90°
2026-04-21 12:14 51.01847 -18.88020 39242 ft 467 kts 90°
2026-04-21 12:15 51.01965 -18.77647 39243 ft 473 kts 90°
2026-04-21 12:15 51.02075 -18.67197 39242 ft 472 kts 90°
2026-04-21 12:16 51.02174 -18.56787 39242 ft 472 kts 90°
2026-04-21 12:16 51.02265 -18.46346 39243 ft 472 kts 90°
2026-04-21 12:17 51.02346 -18.35935 39242 ft 472 kts 90°
2026-04-21 12:17 51.02418 -18.25496 39243 ft 472 kts 90°
2026-04-21 12:18 51.02480 -18.15062 39243 ft 473 kts 91°
2026-04-21 12:18 51.02533 -18.04654 39242 ft 472 kts 91°
2026-04-21 12:19 51.02578 -17.94124 39243 ft 473 kts 91°
2026-04-21 12:19 51.02613 -17.83751 39242 ft 475 kts 91°
2026-04-21 12:20 51.02638 -17.73248 39243 ft 474 kts 91°
2026-04-21 12:20 51.02654 -17.62806 39242 ft 474 kts 91°
2026-04-21 12:21 51.02661 -17.52322 39243 ft 474 kts 91°
2026-04-21 12:21 51.02658 -17.41866 39243 ft 474 kts 91°
2026-04-21 12:22 51.02646 -17.31361 39243 ft 475 kts 91°
2026-04-21 12:22 51.02625 -17.20863 39244 ft 475 kts 91°
2026-04-21 12:23 51.02594 -17.10342 39243 ft 475 kts 91°
2026-04-21 12:23 51.02554 -16.99845 39243 ft 475 kts 92°
2026-04-21 12:24 51.02504 -16.89350 39242 ft 475 kts 92°
2026-04-21 12:24 51.02446 -16.78894 39242 ft 475 kts 92°
2026-04-21 12:25 51.02377 -16.68327 39250 ft 476 kts 92°
2026-04-21 12:25 51.02299 -16.57880 39249 ft 476 kts 92°
2026-04-21 12:26 51.02212 -16.47360 39250 ft 476 kts 92°
2026-04-21 12:26 51.02115 -16.36860 39249 ft 476 kts 92°
2026-04-21 12:27 51.02009 -16.26365 39250 ft 476 kts 92°
2026-04-21 12:27 51.01893 -16.15828 39248 ft 477 kts 92°
2026-04-21 12:28 51.01768 -16.05296 39249 ft 476 kts 92°
2026-04-21 12:28 51.01635 -15.94818 39248 ft 477 kts 92°
2026-04-21 12:29 51.01491 -15.84261 39249 ft 478 kts 92°
2026-04-21 12:29 51.01335 -15.73641 39248 ft 477 kts 92°
2026-04-21 12:30 51.01174 -15.63193 39248 ft 478 kts 93°
2026-04-21 12:30 51.01002 -15.52673 39247 ft 478 kts 93°
2026-04-21 12:31 51.00877 -15.42114 39247 ft 478 kts 92°
2026-04-21 12:31 51.00682 -15.31572 39247 ft 478 kts 93°
2026-04-21 12:32 51.00458 -15.21038 39247 ft 478 kts 93°
2026-04-21 12:32 51.00227 -15.10450 39248 ft 478 kts 93°
2026-04-21 12:33 51.00000 -14.99900 39259 ft 478 kts 93°
2026-04-21 12:33 50.99953 -14.94549 39394 ft 483 kts 91°
2026-04-21 12:33 50.99975 -14.89223 39878 ft 481 kts 91°
2026-04-21 12:33 51.00007 -14.84000 40427 ft 478 kts 91°
2026-04-21 12:34 51.00026 -14.78727 40844 ft 477 kts 91°
2026-04-21 12:34 51.00035 -14.73462 41185 ft 478 kts 91°
2026-04-21 12:34 51.00038 -14.68187 41246 ft 477 kts 91°
2026-04-21 12:35 51.00034 -14.57678 41246 ft 476 kts 91°
2026-04-21 12:35 51.00070 -14.47170 41245 ft 477 kts 90°
2026-04-21 12:36 51.00157 -14.36668 41246 ft 476 kts 91°
2026-04-21 12:36 51.00121 -14.26118 41245 ft 476 kts 91°
2026-04-21 12:37 51.00073 -14.15621 41246 ft 476 kts 91°
2026-04-21 12:37 51.00024 -14.05105 41245 ft 476 kts 91°
2026-04-21 12:38 51.00740 -13.94629 41247 ft 479 kts 79°
2026-04-21 12:38 51.02340 -13.84348 41245 ft 480 kts 76°
2026-04-21 12:39 51.04015 -13.74090 41246 ft 479 kts 77°
2026-04-21 12:39 51.05620 -13.63874 41246 ft 479 kts 77°
2026-04-21 12:40 51.07205 -13.53581 41246 ft 479 kts 77°
2026-04-21 12:40 51.08798 -13.43287 41246 ft 480 kts 76°
2026-04-21 12:41 51.10462 -13.32992 41246 ft 480 kts 77°
2026-04-21 12:41 51.12075 -13.22676 41246 ft 480 kts 77°
2026-04-21 12:42 51.13653 -13.12387 41249 ft 480 kts 77°
2026-04-21 12:42 51.15222 -13.02044 41246 ft 480 kts 77°
2026-04-21 12:43 51.16786 -12.91652 41246 ft 480 kts 77°
2026-04-21 12:43 51.18322 -12.81365 41246 ft 480 kts 78°
2026-04-21 12:44 51.19858 -12.71012 41246 ft 480 kts 78°
2026-04-21 12:44 51.21384 -12.60656 41247 ft 481 kts 78°
2026-04-21 12:45 51.22909 -12.50234 41247 ft 481 kts 78°
2026-04-21 12:45 51.24417 -12.39867 41247 ft 481 kts 78°
2026-04-21 12:46 51.25920 -12.29459 41248 ft 481 kts 78°
2026-04-21 12:46 51.27409 -12.19079 41247 ft 481 kts 78°
2026-04-21 12:47 51.28893 -12.08662 41248 ft 481 kts 78°
2026-04-21 12:47 51.30367 -11.98238 41248 ft 481 kts 78°
2026-04-21 12:48 51.31835 -11.87790 41248 ft 482 kts 78°
2026-04-21 12:48 51.33295 -11.77325 41249 ft 482 kts 78°
2026-04-21 12:49 51.34745 -11.66859 41249 ft 482 kts 78°
2026-04-21 12:49 51.35939 -11.58185 41250 ft 482 kts 78°
2026-04-21 12:50 51.37376 -11.47679 41250 ft 482 kts 78°
2026-04-21 12:50 51.38800 -11.37190 41250 ft 482 kts 78°
2026-04-21 12:51 51.40227 -11.26600 41251 ft 482 kts 78°
2026-04-21 12:51 51.41621 -11.16183 41251 ft 483 kts 79°
2026-04-21 12:52 51.43020 -11.05650 41252 ft 483 kts 79°
2026-04-21 12:52 51.44410 -10.95112 41252 ft 483 kts 79°
2026-04-21 12:53 51.45785 -10.84610 41252 ft 483 kts 79°
2026-04-21 12:53 51.47155 -10.74061 41253 ft 483 kts 79°
2026-04-21 12:54 51.48517 -10.63497 41253 ft 484 kts 79°
2026-04-21 12:54 51.49863 -10.52979 41254 ft 484 kts 79°
2026-04-21 12:55 51.51224 -10.42265 41254 ft 484 kts 79°
2026-04-21 12:55 51.52545 -10.31782 41254 ft 484 kts 79°
2026-04-21 12:56 51.53868 -10.21198 41255 ft 484 kts 79°
2026-04-21 12:56 51.55192 -10.10530 41255 ft 484 kts 79°
2026-04-21 12:57 51.56500 -9.99903 41255 ft 484 kts 79°
2026-04-21 12:57 51.57794 -9.89304 41256 ft 484 kts 79°
2026-04-21 12:58 51.59077 -9.78713 41256 ft 484 kts 79°
2026-04-21 12:58 51.60355 -9.68079 41256 ft 484 kts 79°
2026-04-21 12:59 51.61620 -9.57473 41256 ft 485 kts 79°
2026-04-21 12:59 51.62889 -9.46743 41267 ft 485 kts 80°
2026-04-21 13:00 51.64139 -9.36079 41270 ft 485 kts 80°
2026-04-21 13:00 51.65383 -9.25387 41272 ft 486 kts 80°
2026-04-21 13:01 51.66618 -9.14679 41274 ft 486 kts 80°
2026-04-21 13:01 51.67894 -9.04027 41276 ft 487 kts 80°
2026-04-21 13:02 51.69112 -8.93269 41280 ft 487 kts 80°
2026-04-21 13:02 51.70888 -8.77120 41284 ft 487 kts 80°
2026-04-21 13:03 51.72061 -8.66424 41286 ft 487 kts 80°
2026-04-21 13:03 51.72975 -8.55664 41289 ft 487 kts 86°
2026-04-21 13:04 51.73271 -8.44659 41289 ft 487 kts 88°
2026-04-21 13:04 51.73545 -8.33735 41290 ft 487 kts 88°
2026-04-21 13:05 51.73856 -8.22873 41290 ft 487 kts 88°
2026-04-21 13:05 51.74173 -8.11955 41292 ft 487 kts 88°
2026-04-21 13:06 51.74525 -8.01059 41294 ft 487 kts 86°
2026-04-21 13:06 51.74920 -7.90116 41298 ft 487 kts 87°
2026-04-21 13:07 51.75259 -7.79279 41301 ft 487 kts 87°
2026-04-21 13:07 51.75579 -7.68334 41307 ft 487 kts 88°
2026-04-21 13:08 51.75884 -7.57372 41312 ft 488 kts 88°
2026-04-21 13:08 51.76175 -7.46488 41317 ft 488 kts 88°
2026-04-21 13:09 51.76457 -7.35536 41322 ft 488 kts 88°
2026-04-21 13:09 51.76730 -7.24577 41326 ft 489 kts 88°
2026-04-21 13:10 51.76992 -7.13620 41328 ft 489 kts 88°
2026-04-21 13:10 51.77285 -7.02623 41337 ft 489 kts 87°
2026-04-21 13:11 51.77548 -6.91665 41343 ft 490 kts 88°
2026-04-21 13:11 51.77758 -6.80637 41342 ft 490 kts 88°
2026-04-21 13:12 51.77959 -6.69584 41342 ft 491 kts 88°
2026-04-21 13:12 51.78148 -6.58617 41341 ft 491 kts 89°
2026-04-21 13:13 51.77652 -6.47621 41340 ft 491 kts 97°
2026-04-21 13:13 51.76566 -6.36818 41340 ft 491 kts 100°
2026-04-21 13:14 51.75421 -6.25959 41334 ft 491 kts 99°
2026-04-21 13:14 51.74338 -6.15033 41320 ft 491 kts 99°
2026-04-21 13:15 51.73277 -6.04178 41316 ft 491 kts 99°
2026-04-21 13:15 51.72283 -5.93298 41298 ft 491 kts 98°
2026-04-21 13:16 51.71292 -5.82415 41292 ft 491 kts 98°
2026-04-21 13:16 51.70256 -5.71563 41288 ft 491 kts 98°
2026-04-21 13:17 51.69192 -5.60646 41286 ft 492 kts 99°
2026-04-21 13:17 51.68115 -5.49725 41284 ft 492 kts 99°
2026-04-21 13:18 51.67035 -5.38896 41282 ft 492 kts 99°
2026-04-21 13:18 51.65938 -5.28008 41282 ft 493 kts 99°
2026-04-21 13:19 51.64831 -5.17117 41282 ft 492 kts 99°
2026-04-21 13:19 51.63713 -5.06228 41282 ft 492 kts 99°
2026-04-21 13:20 51.62591 -4.95407 41289 ft 493 kts 99°
2026-04-21 13:20 51.61460 -4.84589 41290 ft 494 kts 99°
2026-04-21 13:21 51.60304 -4.73645 41291 ft 493 kts 99°
2026-04-21 13:21 51.59197 -4.62759 41291 ft 493 kts 99°
2026-04-21 13:22 51.58032 -4.51867 41290 ft 493 kts 99°
2026-04-21 13:22 51.56828 -4.41022 41290 ft 493 kts 99°
2026-04-21 13:23 51.55639 -4.30332 41291 ft 493 kts 99°
2026-04-21 13:23 51.54429 -4.19481 41290 ft 495 kts 99°
2026-04-21 13:24 51.53247 -4.08592 41292 ft 494 kts 99°
2026-04-21 13:24 51.52022 -3.97760 41298 ft 493 kts 99°
2026-04-21 13:25 51.50797 -3.86993 41303 ft 493 kts 100°
2026-04-21 13:25 51.49542 -3.76147 41309 ft 493 kts 100°
2026-04-21 13:26 51.48261 -3.65321 41316 ft 495 kts 100°
2026-04-21 13:26 51.47239 -3.54397 41320 ft 494 kts 95°
2026-04-21 13:27 51.46655 -3.43405 41327 ft 496 kts 94°
2026-04-21 13:27 51.46066 -3.32433 41336 ft 496 kts 95°
2026-04-21 13:28 51.45397 -3.21411 41327 ft 495 kts 95°
2026-04-21 13:28 51.44712 -3.10570 41322 ft 492 kts 95°
2026-04-21 13:29 51.44075 -2.99563 41318 ft 495 kts 94°
2026-04-21 13:29 51.43427 -2.88555 41319 ft 495 kts 95°
2026-04-21 13:30 51.42738 -2.77621 41317 ft 495 kts 95°
2026-04-21 13:30 51.42027 -2.66657 41327 ft 496 kts 95°
2026-04-21 13:31 51.41299 -2.55641 41330 ft 498 kts 95°
2026-04-21 13:31 51.40616 -2.44715 41338 ft 487 kts 94°
2026-04-21 13:32 51.40028 -2.35728 41326 ft 488 kts 95°
2026-04-21 13:32 51.39264 -2.24937 41335 ft 496 kts 95°
2026-04-21 13:33 51.38342 -2.12025 41330 ft 502 kts 96°
2026-04-21 13:33 51.37680 -2.02807 41338 ft 493 kts 95°
2026-04-21 13:34 51.36928 -1.91925 41330 ft 494 kts 95°
2026-04-21 13:34 51.36138 -1.80970 41315 ft 498 kts 96°
2026-04-21 13:35 51.35322 -1.70118 41316 ft 491 kts 96°
2026-04-21 13:35 51.34499 -1.59289 41322 ft 492 kts 96°
2026-04-21 13:36 51.33721 -1.48367 41340 ft 496 kts 96°
2026-04-21 13:36 51.32880 -1.37321 41333 ft 502 kts 96°
2026-04-21 13:37 51.32024 -1.26362 41328 ft 498 kts 96°
2026-04-21 13:37 51.31172 -1.15370 41323 ft 500 kts 95°
2026-04-21 13:38 51.30585 -1.04327 41325 ft 492 kts 93°
2026-04-21 13:38 51.30064 -0.93406 41325 ft 491 kts 94°
2026-04-21 13:39 51.29506 -0.82564 41317 ft 494 kts 94°
2026-04-21 13:39 51.28916 -0.71609 41310 ft 498 kts 94°
2026-04-21 13:40 51.28327 -0.60551 41324 ft 492 kts 93°
2026-04-21 13:40 51.27814 -0.49831 41339 ft 486 kts 94°
2026-04-21 13:41 51.27297 -0.38962 41340 ft 494 kts 94°
2026-04-21 13:41 51.26677 -0.27927 41336 ft 500 kts 94°
2026-04-21 13:42 51.26030 -0.16905 41333 ft 498 kts 95°
2026-04-21 13:42 51.25378 -0.05951 41338 ft 492 kts 94°
2026-04-21 13:43 51.24737 0.04865 41334 ft 496 kts 94°
2026-04-21 13:43 51.24117 0.15841 41343 ft 498 kts 94°
2026-04-21 13:44 51.23464 0.26835 41340 ft 496 kts 94°
2026-04-21 13:44 51.22813 0.37815 41339 ft 497 kts 94°
2026-04-21 13:45 51.22114 0.48819 41336 ft 497 kts 94°
2026-04-21 13:45 51.21414 0.59794 41335 ft 497 kts 94°
2026-04-21 13:46 51.20698 0.70673 41333 ft 497 kts 95°
2026-04-21 13:46 51.19962 0.81651 41330 ft 497 kts 95°
2026-04-21 13:47 51.19301 0.92627 41327 ft 497 kts 94°
2026-04-21 13:47 51.18590 1.03523 41324 ft 497 kts 95°
2026-04-21 13:48 51.17820 1.14462 41322 ft 497 kts 95°
2026-04-21 13:48 51.17044 1.25400 41326 ft 497 kts 95°
2026-04-21 13:49 51.16516 1.36361 41320 ft 495 kts 86°
2026-04-21 13:49 51.17563 1.47160 41325 ft 492 kts 75°
2026-04-21 13:50 51.19199 1.57747 41322 ft 492 kts 75°
2026-04-21 13:50 51.20620 1.68450 41316 ft 492 kts 77°
2026-04-21 13:51 51.21973 1.79168 41317 ft 492 kts 77°
2026-04-21 13:51 51.23314 1.89799 41317 ft 492 kts 77°
2026-04-21 13:52 51.24419 2.00414 41322 ft 494 kts 85°
2026-04-21 13:52 51.24236 2.11423 41325 ft 495 kts 94°
2026-04-21 13:53 51.23603 2.22328 41324 ft 495 kts 93°
2026-04-21 13:53 51.23065 2.33287 41324 ft 496 kts 93°
2026-04-21 13:54 51.21441 2.43971 41317 ft 500 kts 115°
2026-04-21 13:54 51.19582 2.48611 41323 ft 501 kts 130°
2026-04-21 13:54 51.17033 2.52361 41324 ft 501 kts 143°
2026-04-21 13:55 51.12040 2.60071 41320 ft 501 kts 123°
2026-04-21 13:55 51.08963 2.70011 41318 ft 500 kts 108°
2026-04-21 13:56 51.07052 2.80557 41317 ft 498 kts 102°
2026-04-21 13:56 51.05479 2.91238 41315 ft 490 kts 102°
2026-04-21 13:57 51.04692 2.96427 41313 ft 475 kts 102°
2026-04-21 13:57 51.04179 2.99770 41284 ft 466 kts 102°
2026-04-21 13:57 51.02955 3.08308 41094 ft 448 kts 102°
2026-04-21 13:58 51.02223 3.13179 39536 ft 470 kts 102°
2026-04-21 13:58 51.01387 3.18526 36896 ft 516 kts 102°
2026-04-21 13:58 51.00499 3.24137 36071 ft 519 kts 102°
2026-04-21 13:58 50.99643 3.29535 36739 ft 488 kts 102°
2026-04-21 13:59 50.98815 3.34744 36121 ft 488 kts 102°
2026-04-21 13:59 50.97984 3.39969 35374 ft 490 kts 102°
2026-04-21 13:59 50.97157 3.45167 34830 ft 488 kts 102°
2026-04-21 13:59 50.96321 3.50449 34434 ft 483 kts 102°
2026-04-21 14:00 50.95549 3.55532 33986 ft 479 kts 101°
2026-04-21 14:00 50.94778 3.60702 33370 ft 478 kts 101°
2026-04-21 14:00 50.94013 3.65788 32667 ft 481 kts 101°
2026-04-21 14:00 50.93228 3.70963 31942 ft 483 kts 101°
2026-04-21 14:01 50.92435 3.76149 31210 ft 485 kts 101°
2026-04-21 14:01 50.91650 3.81319 30495 ft 486 kts 101°
2026-04-21 14:01 50.90837 3.86583 29749 ft 486 kts 101°
2026-04-21 14:01 50.90044 3.91727 29050 ft 485 kts 101°
2026-04-21 14:02 50.89224 3.96990 28289 ft 484 kts 101°
2026-04-21 14:02 50.88424 4.01965 28601 ft 457 kts 102°
2026-04-21 14:02 50.87658 4.06753 28285 ft 447 kts 100°
2026-04-21 14:03 50.86286 4.16407 26836 ft 448 kts 100°
2026-04-21 14:03 50.85586 4.21179 26113 ft 448 kts 101°
2026-04-21 14:03 50.84861 4.25971 25383 ft 447 kts 101°
2026-04-21 14:03 50.84129 4.30738 24776 ft 443 kts 102°
2026-04-21 14:04 50.83404 4.35414 24225 ft 436 kts 102°
2026-04-21 14:04 50.82683 4.40045 23677 ft 430 kts 102°
2026-04-21 14:04 50.81955 4.44698 23020 ft 427 kts 102°
2026-04-21 14:04 50.81253 4.49168 22426 ft 422 kts 102°
2026-04-21 14:05 50.80552 4.53624 21838 ft 418 kts 102°
2026-04-21 14:05 50.79844 4.58106 21225 ft 414 kts 102°
2026-04-21 14:05 50.79152 4.62480 20631 ft 410 kts 102°
2026-04-21 14:05 50.78469 4.66780 20057 ft 406 kts 102°
2026-04-21 14:06 50.77779 4.71112 19487 ft 401 kts 102°
2026-04-21 14:06 50.77103 4.75350 18897 ft 398 kts 102°
2026-04-21 14:06 50.76429 4.79562 18307 ft 394 kts 102°
2026-04-21 14:06 50.75759 4.83736 17735 ft 390 kts 102°
2026-04-21 14:07 50.75096 4.87860 17160 ft 386 kts 102°
2026-04-21 14:07 50.74432 4.91978 16716 ft 379 kts 102°
2026-04-21 14:07 50.73798 4.95901 16666 ft 362 kts 102°
2026-04-21 14:07 50.73203 4.99659 16591 ft 347 kts 102°
2026-04-21 14:08 50.72643 5.03300 16513 ft 333 kts 102°
2026-04-21 14:08 50.72097 5.06739 16459 ft 319 kts 102°
2026-04-21 14:08 50.71553 5.10093 16386 ft 307 kts 102°
2026-04-21 14:08 50.71024 5.13314 16262 ft 298 kts 102°
2026-04-21 14:09 50.70509 5.16430 16078 ft 291 kts 102°
2026-04-21 14:09 50.69994 5.19530 15793 ft 288 kts 102°
2026-04-21 14:09 50.69495 5.22530 15482 ft 287 kts 102°
2026-04-21 14:09 50.68980 5.25622 15174 ft 285 kts 102°
2026-04-21 14:10 50.68487 5.28572 14869 ft 284 kts 103°
2026-04-21 14:10 50.67984 5.31574 14585 ft 281 kts 103°
2026-04-21 14:10 50.67485 5.34568 14262 ft 280 kts 103°
2026-04-21 14:10 50.66990 5.37519 13920 ft 280 kts 103°
2026-04-21 14:11 50.66501 5.40457 13647 ft 278 kts 103°
2026-04-21 14:11 50.66010 5.43392 13331 ft 276 kts 103°
2026-04-21 14:11 50.65516 5.46346 13025 ft 275 kts 103°
2026-04-21 14:11 50.64998 5.49263 12732 ft 273 kts 104°
2026-04-21 14:12 50.64464 5.52081 12445 ft 272 kts 104°
2026-04-21 14:12 50.63918 5.54934 12158 ft 271 kts 105°
2026-04-21 14:12 50.63163 5.57683 11719 ft 275 kts 113°
2026-04-21 14:12 50.62595 5.60512 11279 ft 274 kts 95°
2026-04-21 14:13 50.62856 5.63426 10934 ft 271 kts 69°
2026-04-21 14:13 50.63947 5.65801 10723 ft 268 kts 43°
2026-04-21 14:13 50.65613 5.67118 10441 ft 272 kts 17°
2026-04-21 14:13 50.67498 5.67089 10152 ft 277 kts 351°
2026-04-21 14:14 50.69289 5.65882 9931 ft 276 kts 335°
2026-04-21 14:14 50.70890 5.64355 9868 ft 266 kts 329°
2026-04-21 14:14 50.72202 5.62220 9664 ft 279 kts 305°
2026-04-21 14:14 50.72796 5.59286 9614 ft 284 kts 278°
2026-04-21 14:15 50.72640 5.56221 9507 ft 278 kts 261°
2026-04-21 14:15 50.72233 5.53285 9180 ft 279 kts 258°
2026-04-21 14:15 50.71833 5.50264 8792 ft 283 kts 258°
2026-04-21 14:15 50.71394 5.47251 8587 ft 278 kts 253°
2026-04-21 14:16 50.70659 5.44442 8331 ft 276 kts 242°
2026-04-21 14:16 50.69651 5.41867 8108 ft 272 kts 236°
2026-04-21 14:16 50.68616 5.39404 7837 ft 272 kts 234°
2026-04-21 14:16 50.67549 5.36922 7572 ft 271 kts 234°
2026-04-21 14:17 50.66493 5.34479 7311 ft 270 kts 233°
2026-04-21 14:17 50.65426 5.32041 7116 ft 266 kts 233°
2026-04-21 14:17 50.64458 5.29836 6931 ft 264 kts 233°
2026-04-21 14:17 50.63415 5.27469 6689 ft 264 kts 233°
2026-04-21 14:18 50.62371 5.25097 6493 ft 261 kts 233°
2026-04-21 14:18 50.61330 5.22734 6202 ft 262 kts 233°
2026-04-21 14:18 50.60306 5.20419 5977 ft 261 kts 233°
2026-04-21 14:18 50.59278 5.18094 5746 ft 260 kts 233°
2026-04-21 14:19 50.58240 5.15758 5370 ft 270 kts 232°
2026-04-21 14:19 50.56887 5.13565 5198 ft 282 kts 213°
2026-04-21 14:19 50.55019 5.12277 5175 ft 310 kts 193°
2026-04-21 14:19 50.53593 5.11898 5129 ft 314 kts 181°
2026-04-21 14:20 50.51499 5.12368 4946 ft 294 kts 157°
2026-04-21 14:20 50.49855 5.14004 4587 ft 272 kts 133°
2026-04-21 14:20 50.48912 5.16400 4239 ft 252 kts 109°
2026-04-21 14:20 50.48553 5.19014 4024 ft 236 kts 96°
2026-04-21 14:21 50.48638 5.21476 3984 ft 224 kts 74°
2026-04-21 14:21 50.49454 5.23447 3993 ft 214 kts 45°
2026-04-21 14:21 50.50688 5.24653 3886 ft 207 kts 32°
2026-04-21 14:21 50.51907 5.25841 3619 ft 205 kts 39°
2026-04-21 14:22 50.53004 5.27234 3404 ft 200 kts 43°
2026-04-21 14:22 50.54003 5.28740 3155 ft 198 kts 47°
2026-04-21 14:22 50.54963 5.30335 2851 ft 201 kts 48°
2026-04-21 14:22 50.55900 5.31894 2592 ft 193 kts 48°
2026-04-21 14:23 50.56813 5.33389 2345 ft 183 kts 47°
2026-04-21 14:23 50.57664 5.34760 2115 ft 168 kts 47°
2026-04-21 14:23 50.58444 5.36004 1911 ft 151 kts 45°
2026-04-21 14:23 50.59158 5.37138 1738 ft 143 kts 44°
2026-04-21 14:24 50.59847 5.38230 1539 ft 139 kts 44°
2026-04-21 14:24 50.60518 5.39290 1358 ft 134 kts 44°
2026-04-21 14:24 50.61176 5.40312 1229 ft 134 kts 44°
2026-04-21 14:24 50.61843 5.41364 1030 ft 135 kts 44°
2026-04-21 14:25 50.62494 5.42432 832 ft 135 kts 45°
2026-04-21 14:25 50.63141 5.43464 694 ft 133 kts 43°
2026-04-21 14:25 50.63728 5.44380 673 ft 92 kts 44°
2026-04-21 14:25 50.64000 5.44816 673 ft 26 kts 45°
2026-04-21 14:26 50.64108 5.44990 673 ft 27 kts 45°
2026-04-21 14:26 50.64246 5.45212 673 ft 21 kts 45°
2026-04-21 14:26 50.64304 5.45304 673 ft 10 kts 45°
2026-04-21 14:26 50.64351 5.45383 673 ft 8 kts 55°
2026-04-21 14:27 50.64368 5.45436 673 ft 3 kts 78°
2026-04-21 14:27 50.64371 5.45460 673 ft 1 kts 78°
2026-04-21 14:27 50.64372 5.45471 673 ft 2 kts 78°
2026-04-21 14:27 50.64385 5.45564 673 ft 16 kts 78°
2026-04-21 14:28 50.64386 5.45622 673 ft 2 kts 91°
2026-04-21 14:28 50.64386 5.45644 673 ft 5 kts 91°
2026-04-21 14:28 50.64386 5.45719 673 ft 9 kts 88°
2026-04-21 14:28 50.64374 5.45783 673 ft 4 kts 156°
2026-04-21 14:29 50.64355 5.45772 673 ft 2 kts 230°
2026-04-21 14:29 50.64344 5.45747 673 ft 3 kts 232°
2026-04-21 14:29 50.64326 5.45713 673 ft 9 kts 230°
2026-04-21 14:29 50.64280 5.45639 673 ft 9 kts 225°
2026-04-21 14:30 50.64241 5.45576 673 ft 8 kts 225°
2026-04-21 14:30 50.64208 5.45524 673 ft 6 kts 225°
2026-04-21 14:30 50.64183 5.45482 673 ft 4 kts 225°
2026-04-21 14:30 50.64164 5.45453 673 ft 5 kts 224°
2026-04-21 14:31 50.64133 5.45406 673 ft 0 kts 223°
2026-04-21 14:31 50.64125 5.45395 673 ft 8 kts 223°
2026-04-21 14:31 50.64050 5.45282 673 ft 7 kts 224°
2026-04-21 14:31 50.64030 5.45251 673 ft 3 kts 225°
2026-04-21 14:32 50.64002 5.45205 673 ft 7 kts 226°
2026-04-21 14:32 50.63960 5.45138 673 ft 15 kts 226°
2026-04-21 14:32 50.63888 5.45021 673 ft 14 kts 226°
2026-04-21 14:32 50.63818 5.44907 673 ft 15 kts 224°
2026-04-21 14:33 50.63747 5.44798 673 ft 14 kts 224°
2026-04-21 14:33 50.63681 5.44696 673 ft 13 kts 225°
2026-04-21 14:33 50.63626 5.44609 673 ft 9 kts 227°
2026-04-21 14:33 50.63544 5.44473 673 ft 25 kts 225°
2026-04-21 14:34 50.63483 5.44377 673 ft 6 kts 225°
2026-04-21 14:34 50.63453 5.44331 673 ft 10 kts 225°
2026-04-21 14:34 50.63352 5.44173 673 ft 17 kts 225°
2026-04-21 14:34 50.63265 5.44031 673 ft 18 kts 226°
2026-04-21 14:35 50.63197 5.43922 673 ft 7 kts 225°
2026-04-21 14:35 50.63180 5.43852 673 ft 7 kts 282°
2026-04-21 14:35 50.63238 5.43790 673 ft 14 kts
2026-04-21 14:35 50.63350 5.43826 673 ft 19 kts
2026-04-21 14:36 50.63425 5.43744 673 ft 16 kts 311°
2026-04-21 14:36 50.63503 5.43616 673 ft 15 kts 316°
2026-04-21 14:36 50.63558 5.43532 673 ft 8 kts 316°
2026-04-21 14:36 50.63593 5.43479 673 ft 6 kts 316°
2026-04-21 14:37 50.63636 5.43406 673 ft 2 kts 290°
2026-04-21 14:37 50.63594 5.43300 673 ft 15 kts 223°
2026-04-21 14:37 50.63538 5.43219 673 ft 8 kts 225°
2026-04-21 14:37 50.63510 5.43157 673 ft 9 kts 252°
2026-04-21 14:38 50.63527 5.43112 673 ft 2 kts 317°
2026-04-21 14:38 50.63547 5.43083 673 ft 7 kts 317°
2026-04-21 14:38 50.63558 5.43067 673 ft 0 kts 314°
2026-04-21 14:38 50.63561 5.43062 673 ft 1 kts 315°
2026-04-21 14:39 50.63566 5.43054 673 ft 1 kts 315°
2026-04-21 14:39 50.63569 5.43049 673 ft 0 kts 314°
2026-04-21 14:39 50.63569 5.43048 673 ft 0 kts 314°